Observation data for Crowell on 07/10/2018      Previous  Date  Next       Current Mesonet Observations  Soil Data  Daily Summary Page  Observations in Plain Language
KCR1 100500Z 14005KT 26/21 A3016 RMK A01 T02610207  RH  072%=      5-min Rain = 0
KCR1 100501Z 15004KT 26/21 A3016 RMK A01 T02610207  RH  072%=      5-min Rain = 0
KCR1 100502Z 15004KT 26/21 A3016 RMK A01 T02610207  RH  072%=      5-min Rain = 0
KCR1 100503Z 15004KT 26/21 A3016 RMK A01 T02610207  RH  072%=      5-min Rain = 0
KCR1 100504Z 15003KT 26/21 A3016 RMK A01 T02610207  RH  072%=      5-min Rain = 0
KCR1 100505Z 15003KT 26/21 A3016 RMK A01 T02600206  RH  072%=      5-min Rain = 0
KCR1 100506Z 15003KT 26/21 A3016 RMK A01 T02600207  RH  073%=      5-min Rain = 0
KCR1 100507Z 15004KT 26/21 A3016 RMK A01 T02600207  RH  073%=      5-min Rain = 0
KCR1 100508Z 15004KT 26/21 A3017 RMK A01 T02590207  RH  073%=      5-min Rain = 0
KCR1 100509Z 15004KT 26/21 A3017 RMK A01 T02590207  RH  073%=      5-min Rain = 0
KCR1 100510Z 15004KT 26/21 A3017 RMK A01 T02580207  RH  073%=      5-min Rain = 0
KCR1 100511Z 15005KT 26/21 A3017 RMK A01 T02580207  RH  074%=      5-min Rain = 0
KCR1 100512Z 15005KT 26/21 A3017 RMK A01 T02580207  RH  074%=      5-min Rain = 0
KCR1 100513Z 15005KT 26/21 A3017 RMK A01 T02580207  RH  074%=      5-min Rain = 0
KCR1 100514Z 16005KT 26/21 A3017 RMK A01 T02580208  RH  074%=      5-min Rain = 0
KCR1 100515Z 15005KT 26/21 A3017 RMK A01 T02580207  RH  074%=      5-min Rain = 0
KCR1 100516Z 15005KT 26/21 A3017 RMK A01 T02580207  RH  073%=      5-min Rain = 0
KCR1 100517Z 15004KT 26/21 A3017 RMK A01 T02580207  RH  073%=      5-min Rain = 0
KCR1 100518Z 15004KT 26/21 A3017 RMK A01 T02580207  RH  073%=      5-min Rain = 0
KCR1 100519Z 16004KT 26/21 A3017 RMK A01 T02580207  RH  073%=      5-min Rain = 0
KCR1 100520Z 16004KT 26/21 A3017 RMK A01 T02580207  RH  073%=      5-min Rain = 0
KCR1 100521Z 16004KT 26/21 A3017 RMK A01 T02580207  RH  073%=      5-min Rain = 0
KCR1 100522Z 16004KT 26/21 A3017 RMK A01 T02580207  RH  073%=      5-min Rain = 0
KCR1 100523Z 15004KT 26/21 A3017 RMK A01 T02580206  RH  073%=      5-min Rain = 0
KCR1 100524Z 15004KT 26/21 A3017 RMK A01 T02570206  RH  073%=      5-min Rain = 0
KCR1 100525Z 15005KT 26/21 A3017 RMK A01 T02570206  RH  073%=      5-min Rain = 0
KCR1 100526Z 14005KT 26/21 A3017 RMK A01 T02570206  RH  073%=      5-min Rain = 0
KCR1 100527Z 14004KT 26/21 A3017 RMK A01 T02570206  RH  073%=      5-min Rain = 0
KCR1 100528Z 14005KT 26/21 A3017 RMK A01 T02570206  RH  073%=      5-min Rain = 0
KCR1 100529Z 14005KT 26/21 A3017 RMK A01 T02570206  RH  074%=      5-min Rain = 0
KCR1 100530Z 14005KT 26/21 A3017 RMK A01 T02560206  RH  074%=      5-min Rain = 0
KCR1 100531Z 14004KT 26/21 A3017 RMK A01 T02560206  RH  074%=      5-min Rain = 0
KCR1 100532Z 14004KT 26/21 A3017 RMK A01 T02570206  RH  074%=      5-min Rain = 0
KCR1 100533Z 14004KT 26/21 A3017 RMK A01 T02570206  RH  073%=      5-min Rain = 0
KCR1 100534Z 14004KT 26/21 A3017 RMK A01 T02570205  RH  073%=      5-min Rain = 0
KCR1 100535Z 15004KT 26/21 A3017 RMK A01 T02570206  RH  073%=      5-min Rain = 0
KCR1 100536Z 15004KT 26/21 A3017 RMK A01 T02570206  RH  073%=      5-min Rain = 0
KCR1 100537Z 14004KT 26/21 A3017 RMK A01 T02560205  RH  073%=      5-min Rain = 0
KCR1 100538Z 15004KT 26/21 A3017 RMK A01 T02560206  RH  074%=      5-min Rain = 0
KCR1 100539Z 15004KT 26/21 A3017 RMK A01 T02560206  RH  074%=      5-min Rain = 0
KCR1 100540Z 14004KT 26/21 A3017 RMK A01 T02560206  RH  074%=      5-min Rain = 0
KCR1 100541Z 14004KT 26/21 A3017 RMK A01 T02560206  RH  074%=      5-min Rain = 0
KCR1 100542Z 14004KT 26/21 A3017 RMK A01 T02560205  RH  074%=      5-min Rain = 0
KCR1 100543Z 14004KT 26/21 A3017 RMK A01 T02560206  RH  074%=      5-min Rain = 0
KCR1 100544Z 14004KT 26/21 A3017 RMK A01 T02550205  RH  074%=      5-min Rain = 0
KCR1 100545Z 14004KT 26/21 A3017 RMK A01 T02550205  RH  074%=      5-min Rain = 0
KCR1 100546Z 14004KT 26/21 A3017 RMK A01 T02550205  RH  074%=      5-min Rain = 0
KCR1 100547Z 14003KT 25/21 A3017 RMK A01 T02540205  RH  074%=      5-min Rain = 0
KCR1 100548Z 15003KT 25/21 A3017 RMK A01 T02540205  RH  074%=      5-min Rain = 0
KCR1 100549Z 15003KT 25/21 A3017 RMK A01 T02540205  RH  074%=      5-min Rain = 0
KCR1 100550Z 15003KT 25/21 A3017 RMK A01 T02540205  RH  074%=      5-min Rain = 0
KCR1 100551Z 15003KT 25/21 A3017 RMK A01 T02540205  RH  074%=      5-min Rain = 0
KCR1 100552Z 15004KT 25/21 A3017 RMK A01 T02540205  RH  074%=      5-min Rain = 0
KCR1 100553Z 14004KT 25/21 A3017 RMK A01 T02540205  RH  074%=      5-min Rain = 0
KCR1 100554Z 14004KT 25/21 A3017 RMK A01 T02540205  RH  074%=      5-min Rain = 0
KCR1 100555Z 14004KT 25/21 A3017 RMK A01 T02540205  RH  074%=      5-min Rain = 0
KCR1 100556Z 14004KT 25/21 A3017 RMK A01 T02540205  RH  074%=      5-min Rain = 0
KCR1 100557Z 14003KT 25/21 A3017 RMK A01 T02540205  RH  074%=      5-min Rain = 0
KCR1 100558Z 14003KT 25/21 A3017 RMK A01 T02540205  RH  074%=      5-min Rain = 0
KCR1 100559Z 14003KT 25/20 A3017 RMK A01 T02540204  RH  074%=      5-min Rain = 0
KCR1 100600Z 14004KT 25/21 A3017 RMK A01 T02540205  RH  074%=      5-min Rain = 0
KCR1 100601Z 14003KT 25/20 A3017 RMK A01 T02530204  RH  074%=      5-min Rain = 0
KCR1 100602Z 13004KT 25/20 A3017 RMK A01 T02530204  RH  074%=      5-min Rain = 0
KCR1 100603Z 13004KT 25/20 A3017 RMK A01 T02530204  RH  074%=      5-min Rain = 0
KCR1 100604Z 13004KT 25/20 A3017 RMK A01 T02530204  RH  074%=      5-min Rain = 0
KCR1 100605Z 14004KT 25/20 A3016 RMK A01 T02530204  RH  074%=      5-min Rain = 0
KCR1 100606Z 14004KT 25/20 A3016 RMK A01 T02530204  RH  074%=      5-min Rain = 0
KCR1 100607Z 14004KT 25/20 A3016 RMK A01 T02530204  RH  075%=      5-min Rain = 0
KCR1 100608Z 14004KT 25/20 A3016 RMK A01 T02520204  RH  075%=      5-min Rain = 0
KCR1 100609Z 14004KT 25/21 A3016 RMK A01 T02520205  RH  075%=      5-min Rain = 0
KCR1 100610Z 14004KT 25/21 A3016 RMK A01 T02520205  RH  075%=      5-min Rain = 0
KCR1 100611Z 14004KT 25/21 A3016 RMK A01 T02520205  RH  075%=      5-min Rain = 0
KCR1 100612Z 14004KT 25/21 A3016 RMK A01 T02520205  RH  075%=      5-min Rain = 0
KCR1 100613Z 14004KT 25/21 A3016 RMK A01 T02520205  RH  075%=      5-min Rain = 0
KCR1 100614Z 14004KT 25/21 A3016 RMK A01 T02520205  RH  075%=      5-min Rain = 0
KCR1 100615Z 14004KT 25/21 A3016 RMK A01 T02520205  RH  075%=      5-min Rain = 0
KCR1 100616Z 14004KT 25/21 A3016 RMK A01 T02520205  RH  075%=      5-min Rain = 0
KCR1 100617Z 14004KT 25/21 A3016 RMK A01 T02510205  RH  075%=      5-min Rain = 0
KCR1 100618Z 14004KT 25/21 A3016 RMK A01 T02510205  RH  075%=      5-min Rain = 0
KCR1 100619Z 14004KT 25/21 A3016 RMK A01 T02510205  RH  075%=      5-min Rain = 0
KCR1 100620Z 14004KT 25/21 A3016 RMK A01 T02520205  RH  075%=      5-min Rain = 0
KCR1 100621Z 14004KT 25/21 A3016 RMK A01 T02510205  RH  075%=      5-min Rain = 0
KCR1 100622Z 14004KT 25/21 A3016 RMK A01 T02510205  RH  075%=      5-min Rain = 0
KCR1 100623Z 13004KT 25/21 A3016 RMK A01 T02510205  RH  075%=      5-min Rain = 0
KCR1 100624Z 13004KT 25/20 A3016 RMK A01 T02510204  RH  075%=      5-min Rain = 0
KCR1 100625Z 13004KT 25/21 A3016 RMK A01 T02520205  RH  075%=      5-min Rain = 0
KCR1 100626Z 13004KT 25/20 A3016 RMK A01 T02510204  RH  075%=      5-min Rain = 0
KCR1 100627Z 14004KT 25/20 A3016 RMK A01 T02510204  RH  075%=      5-min Rain = 0
KCR1 100628Z 14004KT 25/20 A3016 RMK A01 T02510204  RH  075%=      5-min Rain = 0
KCR1 100629Z 14004KT 25/20 A3016 RMK A01 T02510204  RH  075%=      5-min Rain = 0
KCR1 100630Z 14003KT 25/20 A3016 RMK A01 T02510204  RH  075%=      5-min Rain = 0
KCR1 100631Z 14003KT 25/20 A3016 RMK A01 T02500204  RH  075%=      5-min Rain = 0
KCR1 100632Z 14004KT 25/20 A3016 RMK A01 T02510204  RH  075%=      5-min Rain = 0
KCR1 100633Z 14003KT 25/20 A3016 RMK A01 T02500204  RH  075%=      5-min Rain = 0
KCR1 100634Z 15003KT 25/20 A3016 RMK A01 T02500203  RH  075%=      5-min Rain = 0
KCR1 100635Z 15004KT 25/20 A3016 RMK A01 T02500203  RH  075%=      5-min Rain = 0
KCR1 100636Z 15003KT 25/20 A3016 RMK A01 T02500203  RH  075%=      5-min Rain = 0
KCR1 100637Z 16003KT 25/20 A3016 RMK A01 T02510204  RH  075%=      5-min Rain = 0
KCR1 100638Z 16003KT 25/20 A3016 RMK A01 T02500204  RH  075%=      5-min Rain = 0
KCR1 100639Z 16003KT 25/20 A3016 RMK A01 T02510204  RH  075%=      5-min Rain = 0
KCR1 100640Z 16003KT 25/20 A3016 RMK A01 T02500204  RH  075%=      5-min Rain = 0
KCR1 100641Z 16003KT 25/20 A3016 RMK A01 T02500204  RH  075%=      5-min Rain = 0
KCR1 100642Z 16003KT 25/20 A3016 RMK A01 T02510204  RH  075%=      5-min Rain = 0
KCR1 100643Z 16003KT 25/20 A3016 RMK A01 T02500204  RH  076%=      5-min Rain = 0
KCR1 100644Z 17003KT 25/21 A3016 RMK A01 T02510205  RH  076%=      5-min Rain = 0
KCR1 100645Z 17003KT 25/21 A3016 RMK A01 T02500205  RH  076%=      5-min Rain = 0
KCR1 100646Z 16003KT 25/21 A3016 RMK A01 T02510205  RH  076%=      5-min Rain = 0
KCR1 100647Z 16003KT 25/21 A3016 RMK A01 T02510205  RH  076%=      5-min Rain = 0
KCR1 100648Z 16003KT 25/21 A3016 RMK A01 T02510205  RH  076%=      5-min Rain = 0
KCR1 100649Z 16003KT 25/21 A3016 RMK A01 T02510205  RH  076%=      5-min Rain = 0
KCR1 100650Z 16003KT 25/21 A3016 RMK A01 T02510205  RH  076%=      5-min Rain = 0
KCR1 100651Z 16003KT 25/21 A3016 RMK A01 T02510205  RH  076%=      5-min Rain = 0
KCR1 100652Z 16003KT 25/21 A3016 RMK A01 T02500205  RH  076%=      5-min Rain = 0
KCR1 100653Z 16003KT 25/21 A3016 RMK A01 T02500205  RH  076%=      5-min Rain = 0
KCR1 100654Z 17002KT 25/21 A3016 RMK A01 T02510205  RH  076%=      5-min Rain = 0
KCR1 100655Z 17002KT 25/21 A3016 RMK A01 T02510205  RH  076%=      5-min Rain = 0
KCR1 100656Z 16002KT 25/21 A3016 RMK A01 T02500205  RH  076%=      5-min Rain = 0
KCR1 100657Z 16002KT 25/20 A3016 RMK A01 T02500204  RH  076%=      5-min Rain = 0
KCR1 100658Z 16002KT 25/20 A3016 RMK A01 T02500204  RH  075%=      5-min Rain = 0
KCR1 100659Z 16002KT 25/20 A3016 RMK A01 T02500204  RH  075%=      5-min Rain = 0
KCR1 100700Z 16002KT 25/20 A3016 RMK A01 T02510204  RH  075%=      5-min Rain = 0
KCR1 100701Z 16002KT 25/20 A3016 RMK A01 T02510204  RH  075%=      5-min Rain = 0
KCR1 100702Z 16002KT 25/20 A3016 RMK A01 T02510204  RH  075%=      5-min Rain = 0
KCR1 100703Z 16002KT 25/20 A3016 RMK A01 T02510204  RH  075%=      5-min Rain = 0
KCR1 100704Z 16002KT 25/20 A3016 RMK A01 T02510204  RH  075%=      5-min Rain = 0
KCR1 100705Z 16002KT 25/20 A3016 RMK A01 T02500204  RH  075%=      5-min Rain = 0
KCR1 100706Z 15002KT 25/20 A3016 RMK A01 T02500204  RH  075%=      5-min Rain = 0
KCR1 100707Z 15002KT 25/20 A3016 RMK A01 T02500204  RH  075%=      5-min Rain = 0
KCR1 100708Z 15002KT 25/20 A3016 RMK A01 T02500203  RH  075%=      5-min Rain = 0
KCR1 100709Z 15002KT 25/20 A3016 RMK A01 T02500204  RH  075%=      5-min Rain = 0
KCR1 100710Z 15002KT 25/20 A3016 RMK A01 T02510204  RH  075%=      5-min Rain = 0
KCR1 100711Z 15002KT 25/20 A3016 RMK A01 T02500204  RH  075%=      5-min Rain = 0
KCR1 100712Z 15002KT 25/20 A3016 RMK A01 T02500204  RH  075%=      5-min Rain = 0
KCR1 100713Z 14002KT 25/20 A3016 RMK A01 T02500204  RH  075%=      5-min Rain = 0
KCR1 100714Z 14002KT 25/20 A3016 RMK A01 T02510204  RH  075%=      5-min Rain = 0
KCR1 100715Z 14002KT 25/20 A3016 RMK A01 T02500204  RH  075%=      5-min Rain = 0
KCR1 100716Z 13003KT 25/20 A3016 RMK A01 T02510204  RH  075%=      5-min Rain = 0
KCR1 100717Z 13003KT 25/21 A3016 RMK A01 T02510205  RH  075%=      5-min Rain = 0
KCR1 100718Z 13003KT 25/21 A3016 RMK A01 T02510205  RH  075%=      5-min Rain = 0
KCR1 100719Z 12003KT 25/21 A3016 RMK A01 T02520205  RH  075%=      5-min Rain = 0
KCR1 100720Z 12002KT 25/21 A3016 RMK A01 T02520205  RH  075%=      5-min Rain = 0
KCR1 100721Z 12003KT 25/21 A3016 RMK A01 T02530205  RH  075%=      5-min Rain = 0
KCR1 100722Z 12003KT 25/21 A3016 RMK A01 T02530206  RH  075%=      5-min Rain = 0
KCR1 100723Z 12003KT 25/21 A3016 RMK A01 T02530206  RH  075%=      5-min Rain = 0
KCR1 100724Z 12002KT 25/21 A3016 RMK A01 T02540206  RH  075%=      5-min Rain = 0
KCR1 100725Z 12002KT 25/21 A3016 RMK A01 T02540206  RH  075%=      5-min Rain = 0
KCR1 100726Z 12002KT 25/21 A3016 RMK A01 T02540206  RH  074%=      5-min Rain = 0
KCR1 100727Z 12002KT 25/21 A3016 RMK A01 T02540205  RH  074%=      5-min Rain = 0
KCR1 100728Z 12002KT 25/21 A3016 RMK A01 T02540206  RH  074%=      5-min Rain = 0
KCR1 100729Z 12003KT 26/21 A3016 RMK A01 T02550206  RH  075%=      5-min Rain = 0
KCR1 100730Z 12003KT 26/21 A3017 RMK A01 T02550206  RH  074%=      5-min Rain = 0
KCR1 100731Z 11003KT 26/21 A3017 RMK A01 T02550206  RH  074%=      5-min Rain = 0
KCR1 100732Z 12002KT 26/21 A3017 RMK A01 T02550206  RH  074%=      5-min Rain = 0
KCR1 100733Z 12003KT 26/21 A3017 RMK A01 T02560206  RH  074%=      5-min Rain = 0
KCR1 100734Z 12003KT 26/21 A3017 RMK A01 T02560206  RH  074%=      5-min Rain = 0
KCR1 100735Z 12003KT 26/21 A3017 RMK A01 T02560206  RH  074%=      5-min Rain = 0
KCR1 100736Z 13003KT 26/21 A3017 RMK A01 T02560206  RH  074%=      5-min Rain = 0
KCR1 100737Z 12003KT 26/21 A3017 RMK A01 T02560206  RH  074%=      5-min Rain = 0
KCR1 100738Z 13003KT 26/21 A3017 RMK A01 T02560206  RH  074%=      5-min Rain = 0
KCR1 100739Z 13003KT 26/21 A3017 RMK A01 T02560206  RH  074%=      5-min Rain = 0
KCR1 100740Z 13003KT 26/21 A3017 RMK A01 T02560206  RH  074%=      5-min Rain = 0
KCR1 100741Z 13003KT 26/21 A3017 RMK A01 T02560206  RH  074%=      5-min Rain = 0
KCR1 100742Z 12003KT 26/21 A3017 RMK A01 T02560206  RH  074%=      5-min Rain = 0
KCR1 100743Z 13003KT 26/21 A3017 RMK A01 T02560206  RH  074%=      5-min Rain = 0
KCR1 100744Z 13003KT 26/21 A3017 RMK A01 T02560206  RH  074%=      5-min Rain = 0
KCR1 100745Z 13003KT 26/21 A3017 RMK A01 T02560206  RH  074%=      5-min Rain = 0
KCR1 100746Z 13003KT 26/21 A3017 RMK A01 T02560206  RH  074%=      5-min Rain = 0
KCR1 100747Z 13003KT 26/21 A3017 RMK A01 T02560206  RH  074%=      5-min Rain = 0
KCR1 100748Z 14002KT 26/21 A3017 RMK A01 T02560206  RH  074%=      5-min Rain = 0
KCR1 100749Z 14003KT 26/21 A3017 RMK A01 T02560206  RH  074%=      5-min Rain = 0
KCR1 100750Z 14003KT 26/21 A3017 RMK A01 T02560206  RH  074%=      5-min Rain = 0
KCR1 100751Z 14003KT 26/21 A3017 RMK A01 T02560206  RH  074%=      5-min Rain = 0
KCR1 100752Z 14003KT 26/21 A3017 RMK A01 T02560206  RH  074%=      5-min Rain = 0
KCR1 100753Z 14003KT 26/21 A3017 RMK A01 T02560206  RH  074%=      5-min Rain = 0
KCR1 100754Z 14003KT 26/21 A3017 RMK A01 T02560206  RH  074%=      5-min Rain = 0
KCR1 100755Z 14003KT 26/21 A3017 RMK A01 T02560206  RH  074%=      5-min Rain = 0
KCR1 100756Z 14003KT 26/21 A3017 RMK A01 T02550206  RH  074%=      5-min Rain = 0
KCR1 100757Z 15003KT 26/21 A3017 RMK A01 T02550206  RH  074%=      5-min Rain = 0
KCR1 100758Z 15003KT 26/21 A3017 RMK A01 T02550206  RH  074%=      5-min Rain = 0
KCR1 100759Z 15003KT 26/21 A3017 RMK A01 T02550206  RH  075%=      5-min Rain = 0
KCR1 100800Z 15003KT 26/21 A3017 RMK A01 T02550206  RH  075%=      5-min Rain = 0
KCR1 100801Z 15003KT 25/21 A3017 RMK A01 T02540206  RH  075%=      5-min Rain = 0
KCR1 100802Z 14004KT 25/21 A3017 RMK A01 T02540206  RH  075%=      5-min Rain = 0
KCR1 100803Z 14003KT 25/21 A3017 RMK A01 T02540206  RH  075%=      5-min Rain = 0
KCR1 100804Z 15003KT 25/21 A3017 RMK A01 T02540206  RH  075%=      5-min Rain = 0
KCR1 100805Z 15003KT 25/21 A3017 RMK A01 T02540206  RH  075%=      5-min Rain = 0
KCR1 100806Z 15004KT 25/21 A3017 RMK A01 T02530206  RH  075%=      5-min Rain = 0
KCR1 100807Z 15004KT 25/21 A3017 RMK A01 T02530206  RH  075%=      5-min Rain = 0
KCR1 100808Z 14004KT 25/21 A3017 RMK A01 T02530206  RH  075%=      5-min Rain = 0
KCR1 100809Z 15004KT 25/21 A3017 RMK A01 T02530206  RH  075%=      5-min Rain = 0
KCR1 100810Z 15004KT 25/21 A3017 RMK A01 T02530206  RH  075%=      5-min Rain = 0
KCR1 100811Z 15004KT 25/21 A3017 RMK A01 T02530207  RH  075%=      5-min Rain = 0
KCR1 100812Z 14005KT 25/21 A3017 RMK A01 T02530206  RH  075%=      5-min Rain = 0
KCR1 100813Z 14005KT 25/21 A3017 RMK A01 T02530207  RH  076%=      5-min Rain = 0
KCR1 100814Z 14005KT 25/21 A3017 RMK A01 T02530206  RH  076%=      5-min Rain = 0
KCR1 100815Z 15004KT 25/21 A3017 RMK A01 T02520206  RH  076%=      5-min Rain = 0
KCR1 100816Z 15004KT 25/21 A3017 RMK A01 T02520206  RH  076%=      5-min Rain = 0
KCR1 100817Z 15004KT 25/21 A3016 RMK A01 T02530207  RH  076%=      5-min Rain = 0
KCR1 100818Z 15004KT 25/21 A3016 RMK A01 T02520207  RH  076%=      5-min Rain = 0
KCR1 100819Z 15004KT 25/21 A3016 RMK A01 T02520207  RH  076%=      5-min Rain = 0
KCR1 100820Z 15004KT 25/21 A3017 RMK A01 T02520207  RH  076%=      5-min Rain = 0
KCR1 100821Z 15004KT 25/21 A3016 RMK A01 T02520207  RH  076%=      5-min Rain = 0
KCR1 100822Z 15004KT 25/21 A3016 RMK A01 T02520206  RH  076%=      5-min Rain = 0
KCR1 100823Z 15004KT 25/21 A3016 RMK A01 T02520206  RH  076%=      5-min Rain = 0
KCR1 100824Z 15004KT 25/21 A3016 RMK A01 T02510206  RH  076%=      5-min Rain = 0
KCR1 100825Z 15004KT 25/21 A3016 RMK A01 T02510206  RH  076%=      5-min Rain = 0
KCR1 100826Z 15004KT 25/21 A3016 RMK A01 T02510206  RH  076%=      5-min Rain = 0
KCR1 100827Z 15003KT 25/21 A3016 RMK A01 T02510206  RH  076%=      5-min Rain = 0
KCR1 100828Z 15003KT 25/21 A3016 RMK A01 T02510206  RH  076%=      5-min Rain = 0
KCR1 100829Z 14004KT 25/21 A3017 RMK A01 T02500206  RH  076%=      5-min Rain = 0
KCR1 100830Z 15004KT 25/21 A3017 RMK A01 T02510206  RH  076%=      5-min Rain = 0
KCR1 100831Z 15004KT 25/21 A3017 RMK A01 T02510206  RH  076%=      5-min Rain = 0
KCR1 100832Z 15004KT 25/21 A3016 RMK A01 T02500206  RH  076%=      5-min Rain = 0
KCR1 100833Z 15004KT 25/21 A3016 RMK A01 T02500206  RH  076%=      5-min Rain = 0
KCR1 100834Z 15004KT 25/21 A3016 RMK A01 T02500205  RH  076%=      5-min Rain = 0
KCR1 100835Z 15004KT 25/21 A3016 RMK A01 T02500206  RH  076%=      5-min Rain = 0
KCR1 100836Z 15003KT 25/21 A3016 RMK A01 T02490205  RH  076%=      5-min Rain = 0
KCR1 100837Z 15003KT 25/21 A3016 RMK A01 T02500206  RH  076%=      5-min Rain = 0
KCR1 100838Z 15004KT 25/21 A3016 RMK A01 T02490205  RH  077%=      5-min Rain = 0
KCR1 100839Z 16004KT 25/21 A3016 RMK A01 T02490206  RH  077%=      5-min Rain = 0
KCR1 100840Z 16004KT 25/21 A3016 RMK A01 T02490205  RH  077%=      5-min Rain = 0
KCR1 100841Z 16003KT 25/21 A3016 RMK A01 T02480205  RH  077%=      5-min Rain = 0
KCR1 100842Z 16004KT 25/20 A3016 RMK A01 T02480204  RH  077%=      5-min Rain = 0
KCR1 100843Z 16003KT 25/20 A3016 RMK A01 T02480204  RH  077%=      5-min Rain = 0
KCR1 100844Z 16003KT 25/20 A3016 RMK A01 T02480204  RH  077%=      5-min Rain = 0
KCR1 100845Z 16003KT 25/20 A3016 RMK A01 T02480204  RH  077%=      5-min Rain = 0
KCR1 100846Z 16004KT 25/20 A3016 RMK A01 T02480204  RH  077%=      5-min Rain = 0
KCR1 100847Z 16004KT 25/20 A3016 RMK A01 T02480204  RH  077%=      5-min Rain = 0
KCR1 100848Z 16004KT 25/20 A3016 RMK A01 T02470204  RH  077%=      5-min Rain = 0
KCR1 100849Z 16004KT 25/20 A3016 RMK A01 T02470204  RH  077%=      5-min Rain = 0
KCR1 100850Z 16004KT 25/20 A3016 RMK A01 T02470204  RH  077%=      5-min Rain = 0
KCR1 100851Z 16004KT 25/20 A3016 RMK A01 T02470204  RH  077%=      5-min Rain = 0
KCR1 100852Z 16004KT 25/20 A3016 RMK A01 T02470204  RH  077%=      5-min Rain = 0
KCR1 100853Z 16004KT 25/20 A3016 RMK A01 T02470204  RH  077%=      5-min Rain = 0
KCR1 100854Z 16004KT 25/20 A3016 RMK A01 T02470204  RH  077%=      5-min Rain = 0
KCR1 100855Z 17004KT 25/20 A3016 RMK A01 T02470204  RH  077%=      5-min Rain = 0
KCR1 100856Z 17004KT 25/20 A3016 RMK A01 T02470204  RH  077%=      5-min Rain = 0
KCR1 100857Z 17004KT 25/20 A3016 RMK A01 T02470204  RH  077%=      5-min Rain = 0
KCR1 100858Z 17003KT 25/20 A3016 RMK A01 T02470204  RH  077%=      5-min Rain = 0
KCR1 100859Z 17003KT 25/20 A3016 RMK A01 T02470204  RH  077%=      5-min Rain = 0
KCR1 100900Z 17003KT 25/20 A3016 RMK A01 T02470204  RH  077%=      5-min Rain = 0
KCR1 100901Z 17003KT 25/20 A3016 RMK A01 T02470204  RH  077%=      5-min Rain = 0
KCR1 100902Z 17003KT 25/20 A3016 RMK A01 T02470204  RH  077%=      5-min Rain = 0
KCR1 100903Z 17003KT 25/20 A3016 RMK A01 T02470203  RH  077%=      5-min Rain = 0
KCR1 100904Z 18003KT 25/20 A3016 RMK A01 T02470203  RH  076%=      5-min Rain = 0
KCR1 100905Z 18003KT 25/20 A3016 RMK A01 T02470203  RH  076%=      5-min Rain = 0
KCR1 100906Z 18003KT 25/20 A3016 RMK A01 T02470203  RH  076%=      5-min Rain = 0
KCR1 100907Z 18003KT 25/20 A3016 RMK A01 T02470202  RH  076%=      5-min Rain = 0
KCR1 100908Z 18003KT 25/20 A3016 RMK A01 T02470202  RH  076%=      5-min Rain = 0
KCR1 100909Z 19003KT 25/20 A3016 RMK A01 T02480202  RH  076%=      5-min Rain = 0
KCR1 100910Z 19003KT 25/20 A3016 RMK A01 T02470203  RH  076%=      5-min Rain = 0
KCR1 100911Z 19003KT 25/20 A3016 RMK A01 T02470203  RH  076%=      5-min Rain = 0
KCR1 100912Z 20003KT 25/20 A3016 RMK A01 T02470202  RH  076%=      5-min Rain = 0
KCR1 100913Z 20002KT 25/20 A3016 RMK A01 T02470203  RH  076%=      5-min Rain = 0
KCR1 100914Z 20003KT 25/20 A3016 RMK A01 T02470203  RH  076%=      5-min Rain = 0
KCR1 100915Z 21002KT 25/20 A3016 RMK A01 T02480202  RH  076%=      5-min Rain = 0
KCR1 100916Z 21002KT 25/20 A3016 RMK A01 T02480202  RH  076%=      5-min Rain = 0
KCR1 100917Z 21002KT 25/20 A3016 RMK A01 T02480202  RH  076%=      5-min Rain = 0
KCR1 100918Z 21002KT 25/20 A3015 RMK A01 T02490202  RH  075%=      5-min Rain = 0
KCR1 100919Z 22002KT 25/20 A3015 RMK A01 T02490202  RH  075%=      5-min Rain = 0
KCR1 100920Z 22001KT 25/20 A3015 RMK A01 T02490202  RH  075%=      5-min Rain = 0
KCR1 100921Z 22001KT 25/20 A3015 RMK A01 T02490202  RH  075%=      5-min Rain = 0
KCR1 100922Z 22002KT 25/20 A3015 RMK A01 T02480202  RH  075%=      5-min Rain = 0
KCR1 100923Z 22002KT 25/20 A3015 RMK A01 T02480202  RH  076%=      5-min Rain = 0
KCR1 100924Z 21002KT 25/20 A3015 RMK A01 T02480202  RH  076%=      5-min Rain = 0
KCR1 100925Z 21002KT 25/20 A3015 RMK A01 T02470202  RH  076%=      5-min Rain = 0
KCR1 100926Z 21002KT 25/20 A3015 RMK A01 T02470202  RH  076%=      5-min Rain = 0
KCR1 100927Z 21001KT 25/20 A3015 RMK A01 T02470202  RH  076%=      5-min Rain = 0
KCR1 100928Z 22001KT 25/20 A3015 RMK A01 T02470202  RH  076%=      5-min Rain = 0
KCR1 100929Z 22001KT 25/20 A3015 RMK A01 T02470202  RH  076%=      5-min Rain = 0
KCR1 100930Z 22002KT 25/20 A3015 RMK A01 T02470202  RH  076%=      5-min Rain = 0
KCR1 100931Z 22002KT 25/20 A3015 RMK A01 T02470202  RH  076%=      5-min Rain = 0
KCR1 100932Z 22002KT 25/20 A3015 RMK A01 T02470202  RH  076%=      5-min Rain = 0
KCR1 100933Z 22002KT 25/20 A3015 RMK A01 T02470202  RH  076%=      5-min Rain = 0
KCR1 100934Z 22002KT 25/20 A3015 RMK A01 T02470202  RH  076%=      5-min Rain = 0
KCR1 100935Z 22002KT 25/20 A3015 RMK A01 T02460202  RH  076%=      5-min Rain = 0
KCR1 100936Z 22002KT 25/20 A3015 RMK A01 T02460203  RH  077%=      5-min Rain = 0
KCR1 100937Z 23002KT 25/20 A3015 RMK A01 T02460202  RH  077%=      5-min Rain = 0
KCR1 100938Z 23002KT 25/20 A3015 RMK A01 T02450202  RH  077%=      5-min Rain = 0
KCR1 100939Z 23002KT 25/20 A3015 RMK A01 T02450203  RH  077%=      5-min Rain = 0
KCR1 100940Z 23002KT 25/20 A3015 RMK A01 T02450202  RH  077%=      5-min Rain = 0
KCR1 100941Z 23002KT 25/20 A3015 RMK A01 T02450202  RH  077%=      5-min Rain = 0
KCR1 100942Z 23002KT 25/20 A3015 RMK A01 T02450202  RH  077%=      5-min Rain = 0
KCR1 100943Z 22002KT 25/20 A3015 RMK A01 T02450202  RH  077%=      5-min Rain = 0
KCR1 100944Z 22002KT 24/20 A3015 RMK A01 T02440202  RH  077%=      5-min Rain = 0
KCR1 100945Z 22002KT 24/20 A3015 RMK A01 T02440202  RH  077%=      5-min Rain = 0
KCR1 100946Z 22002KT 24/20 A3015 RMK A01 T02440201  RH  077%=      5-min Rain = 0
KCR1 100947Z 22001KT 24/20 A3015 RMK A01 T02440201  RH  077%=      5-min Rain = 0
KCR1 100948Z 22001KT 24/20 A3015 RMK A01 T02440201  RH  077%=      5-min Rain = 0
KCR1 100949Z 22001KT 24/20 A3015 RMK A01 T02440201  RH  077%=      5-min Rain = 0
KCR1 100950Z 21001KT 24/20 A3015 RMK A01 T02430201  RH  077%=      5-min Rain = 0
KCR1 100951Z 21001KT 24/20 A3016 RMK A01 T02430200  RH  077%=      5-min Rain = 0
KCR1 100952Z 21001KT 24/20 A3016 RMK A01 T02430201  RH  077%=      5-min Rain = 0
KCR1 100953Z 21001KT 24/20 A3016 RMK A01 T02430201  RH  078%=      5-min Rain = 0
KCR1 100954Z 21001KT 24/20 A3016 RMK A01 T02420201  RH  078%=      5-min Rain = 0
KCR1 100955Z 21000KT 24/20 A3016 RMK A01 T02420201  RH  078%=      5-min Rain = 0
KCR1 100956Z 21000KT 24/20 A3016 RMK A01 T02420202  RH  078%=      5-min Rain = 0
KCR1 100957Z 00000KT 24/20 A3016 RMK A01 T02420202  RH  078%=      5-min Rain = 0
KCR1 100958Z 00000KT 24/20 A3016 RMK A01 T02420201  RH  078%=      5-min Rain = 0
KCR1 100959Z 00000KT 24/20 A3015 RMK A01 T02420201  RH  078%=      5-min Rain = 0
KCR1 101000Z 21001KT 24/20 A3015 RMK A01 T02420201  RH  078%=      5-min Rain = 0
KCR1 101001Z 22001KT 24/20 A3015 RMK A01 T02420201  RH  078%=      5-min Rain = 0
KCR1 101002Z 21001KT 24/20 A3016 RMK A01 T02420200  RH  078%=      5-min Rain = 0
KCR1 101003Z 21002KT 24/20 A3016 RMK A01 T02420200  RH  078%=      5-min Rain = 0
KCR1 101004Z 21002KT 24/20 A3016 RMK A01 T02420200  RH  077%=      5-min Rain = 0
KCR1 101005Z 21002KT 24/20 A3016 RMK A01 T02420198  RH  077%=      5-min Rain = 0
KCR1 101006Z 21002KT 24/20 A3016 RMK A01 T02420200  RH  078%=      5-min Rain = 0
KCR1 101007Z 21002KT 24/20 A3016 RMK A01 T02420200  RH  078%=      5-min Rain = 0
KCR1 101008Z 21002KT 24/20 A3016 RMK A01 T02420200  RH  077%=      5-min Rain = 0
KCR1 101009Z 22002KT 24/20 A3016 RMK A01 T02420199  RH  077%=      5-min Rain = 0
KCR1 101010Z 22003KT 24/20 A3016 RMK A01 T02420200  RH  077%=      5-min Rain = 0
KCR1 101011Z 22002KT 24/20 A3016 RMK A01 T02430200  RH  077%=      5-min Rain = 0
KCR1 101012Z 22002KT 24/20 A3015 RMK A01 T02420200  RH  077%=      5-min Rain = 0
KCR1 101013Z 23002KT 24/20 A3015 RMK A01 T02410200  RH  077%=      5-min Rain = 0
KCR1 101014Z 23002KT 24/20 A3015 RMK A01 T02410200  RH  078%=      5-min Rain = 0
KCR1 101015Z 23002KT 24/20 A3015 RMK A01 T02410201  RH  078%=      5-min Rain = 0
KCR1 101016Z 23002KT 24/20 A3015 RMK A01 T02420202  RH  078%=      5-min Rain = 0
KCR1 101017Z 23002KT 24/20 A3015 RMK A01 T02420201  RH  078%=      5-min Rain = 0
KCR1 101018Z 23002KT 24/20 A3015 RMK A01 T02410200  RH  078%=      5-min Rain = 0
KCR1 101019Z 23002KT 24/20 A3015 RMK A01 T02410201  RH  078%=      5-min Rain = 0
KCR1 101020Z 24002KT 24/20 A3015 RMK A01 T02410200  RH  078%=      5-min Rain = 0
KCR1 101021Z 24002KT 24/20 A3015 RMK A01 T02410201  RH  078%=      5-min Rain = 0
KCR1 101022Z 25002KT 24/20 A3015 RMK A01 T02410201  RH  078%=      5-min Rain = 0
KCR1 101023Z 25002KT 24/20 A3015 RMK A01 T02410201  RH  078%=      5-min Rain = 0
KCR1 101024Z 25002KT 24/20 A3015 RMK A01 T02410201  RH  078%=      5-min Rain = 0
KCR1 101025Z 25002KT 24/20 A3015 RMK A01 T02410201  RH  078%=      5-min Rain = 0
KCR1 101026Z 25002KT 24/20 A3015 RMK A01 T02410201  RH  078%=      5-min Rain = 0
KCR1 101027Z 25002KT 24/20 A3015 RMK A01 T02410200  RH  078%=      5-min Rain = 0
KCR1 101028Z 25002KT 24/20 A3015 RMK A01 T02410201  RH  078%=      5-min Rain = 0
KCR1 101029Z 26002KT 24/20 A3015 RMK A01 T02410201  RH  078%=      5-min Rain = 0
KCR1 101030Z 26002KT 24/20 A3015 RMK A01 T02410200  RH  078%=      5-min Rain = 0
KCR1 101031Z 26002KT 24/20 A3015 RMK A01 T02420201  RH  078%=      5-min Rain = 0
KCR1 101032Z 27001KT 24/20 A3015 RMK A01 T02420200  RH  078%=      5-min Rain = 0
KCR1 101033Z 27001KT 24/20 A3015 RMK A01 T02420200  RH  078%=      5-min Rain = 0
KCR1 101034Z 27001KT 24/20 A3015 RMK A01 T02420200  RH  077%=      5-min Rain = 0
KCR1 101035Z 27001KT 24/20 A3015 RMK A01 T02420200  RH  077%=      5-min Rain = 0
KCR1 101036Z 27001KT 24/20 A3015 RMK A01 T02420200  RH  077%=      5-min Rain = 0
KCR1 101037Z 27001KT 24/20 A3015 RMK A01 T02420200  RH  077%=      5-min Rain = 0
KCR1 101038Z 27001KT 24/20 A3015 RMK A01 T02430200  RH  077%=      5-min Rain = 0
KCR1 101039Z 27002KT 24/20 A3015 RMK A01 T02430199  RH  077%=      5-min Rain = 0
KCR1 101040Z 27001KT 24/20 A3015 RMK A01 T02430199  RH  076%=      5-min Rain = 0
KCR1 101041Z 28001KT 24/20 A3015 RMK A01 T02430199  RH  076%=      5-min Rain = 0
KCR1 101042Z 28001KT 24/20 A3015 RMK A01 T02430199  RH  076%=      5-min Rain = 0
KCR1 101043Z 27001KT 24/20 A3015 RMK A01 T02430199  RH  076%=      5-min Rain = 0
KCR1 101044Z 27001KT 24/20 A3015 RMK A01 T02430199  RH  076%=      5-min Rain = 0
KCR1 101045Z 26001KT 24/20 A3015 RMK A01 T02430199  RH  076%=      5-min Rain = 0
KCR1 101046Z 25001KT 24/20 A3015 RMK A01 T02430199  RH  076%=      5-min Rain = 0
KCR1 101047Z 25001KT 24/20 A3015 RMK A01 T02430199  RH  076%=      5-min Rain = 0
KCR1 101048Z 24001KT 24/20 A3015 RMK A01 T02430199  RH  076%=      5-min Rain = 0
KCR1 101049Z 24001KT 24/20 A3015 RMK A01 T02430199  RH  076%=      5-min Rain = 0
KCR1 101050Z 23001KT 24/20 A3015 RMK A01 T02430199  RH  076%=      5-min Rain = 0
KCR1 101051Z 22001KT 24/20 A3015 RMK A01 T02430199  RH  076%=      5-min Rain = 0
KCR1 101052Z 22001KT 24/20 A3015 RMK A01 T02430199  RH  076%=      5-min Rain = 0
KCR1 101053Z 22000KT 24/20 A3015 RMK A01 T02420198  RH  077%=      5-min Rain = 0
KCR1 101054Z 00000KT 24/20 A3015 RMK A01 T02420199  RH  077%=      5-min Rain = 0
KCR1 101055Z 00000KT 24/20 A3015 RMK A01 T02420199  RH  077%=      5-min Rain = 0
KCR1 101056Z 00000KT 24/20 A3015 RMK A01 T02420199  RH  077%=      5-min Rain = 0
KCR1 101057Z 00000KT 24/20 A3015 RMK A01 T02410199  RH  077%=      5-min Rain = 0
KCR1 101058Z 00000KT 24/20 A3015 RMK A01 T02410199  RH  077%=      5-min Rain = 0
KCR1 101059Z 00000KT 24/20 A3015 RMK A01 T02410199  RH  077%=      5-min Rain = 0
KCR1 101100Z 00000KT 24/20 A3015 RMK A01 T02410199  RH  077%=      5-min Rain = 0
KCR1 101101Z 00000KT 24/20 A3016 RMK A01 T02410199  RH  077%=      5-min Rain = 0
KCR1 101102Z 00000KT 24/20 A3016 RMK A01 T02420200  RH  077%=      5-min Rain = 0
KCR1 101103Z 00000KT 24/20 A3016 RMK A01 T02420199  RH  077%=      5-min Rain = 0
KCR1 101104Z 00000KT 24/20 A3016 RMK A01 T02420199  RH  077%=      5-min Rain = 0
KCR1 101105Z 00000KT 24/19 A3016 RMK A01 T02420190  RH  073%=      5-min Rain = 0
KCR1 101106Z 00000KT 24/19 A3016 RMK A01 T02400185  RH  071%=      5-min Rain = 0
KCR1 101107Z 00000KT 24/18 A3016 RMK A01 T02380183  RH  071%=      5-min Rain = 0
KCR1 101108Z 11000KT 24/18 A3016 RMK A01 T02360183  RH  072%=      5-min Rain = 0
KCR1 101109Z 11001KT 23/18 A3016 RMK A01 T02340182  RH  073%=      5-min Rain = 0
KCR1 101110Z 12001KT 23/18 A3016 RMK A01 T02320183  RH  074%=      5-min Rain = 0
KCR1 101111Z 12001KT 23/19 A3016 RMK A01 T02310186  RH  075%=      5-min Rain = 0
KCR1 101112Z 12001KT 23/19 A3016 RMK A01 T02310189  RH  077%=      5-min Rain = 0
KCR1 101113Z 12001KT 23/19 A3016 RMK A01 T02310189  RH  077%=      5-min Rain = 0
KCR1 101114Z 12001KT 23/19 A3016 RMK A01 T02310188  RH  077%=      5-min Rain = 0
KCR1 101115Z 12001KT 23/19 A3016 RMK A01 T02310190  RH  078%=      5-min Rain = 0
KCR1 101116Z 12001KT 23/19 A3016 RMK A01 T02320192  RH  078%=      5-min Rain = 0
KCR1 101117Z 12001KT 23/19 A3016 RMK A01 T02320191  RH  078%=      5-min Rain = 0
KCR1 101118Z 12001KT 23/19 A3016 RMK A01 T02330192  RH  078%=      5-min Rain = 0
KCR1 101119Z 11001KT 23/19 A3016 RMK A01 T02330192  RH  078%=      5-min Rain = 0
KCR1 101120Z 10001KT 23/19 A3016 RMK A01 T02330189  RH  076%=      5-min Rain = 0
KCR1 101121Z 09001KT 23/19 A3016 RMK A01 T02330189  RH  076%=      5-min Rain = 0
KCR1 101122Z 07001KT 23/19 A3016 RMK A01 T02320189  RH  077%=      5-min Rain = 0
KCR1 101123Z 06002KT 23/18 A3016 RMK A01 T02310179  RH  072%=      5-min Rain = 0
KCR1 101124Z 05003KT 23/18 A3016 RMK A01 T02290177  RH  072%=      5-min Rain = 0
KCR1 101125Z 04003KT 23/18 A3016 RMK A01 T02280178  RH  074%=      5-min Rain = 0
KCR1 101126Z 05003KT 23/18 A3016 RMK A01 T02260177  RH  073%=      5-min Rain = 0
KCR1 101127Z 05003KT 23/18 A3016 RMK A01 T02250178  RH  075%=      5-min Rain = 0
KCR1 101128Z 05003KT 23/18 A3016 RMK A01 T02250181  RH  076%=      5-min Rain = 0
KCR1 101129Z 04003KT 23/18 A3016 RMK A01 T02250182  RH  077%=      5-min Rain = 0
KCR1 101130Z 02003KT 23/19 A3016 RMK A01 T02250185  RH  078%=      5-min Rain = 0
KCR1 101131Z 03003KT 23/19 A3016 RMK A01 T02250190  RH  081%=      5-min Rain = 0
KCR1 101132Z 04003KT 23/19 A3016 RMK A01 T02260192  RH  081%=      5-min Rain = 0
KCR1 101133Z 03003KT 23/19 A3016 RMK A01 T02270193  RH  081%=      5-min Rain = 0
KCR1 101134Z 03004KT 23/19 A3016 RMK A01 T02290193  RH  080%=      5-min Rain = 0
KCR1 101135Z 03004KT 23/19 A3016 RMK A01 T02290192  RH  079%=      5-min Rain = 0
KCR1 101136Z 02004KT 23/19 A3016 RMK A01 T02290192  RH  079%=      5-min Rain = 0
KCR1 101137Z 02004KT 23/19 A3016 RMK A01 T02290192  RH  079%=      5-min Rain = 0
KCR1 101138Z 02003KT 23/19 A3016 RMK A01 T02290191  RH  079%=      5-min Rain = 0
KCR1 101139Z 03002KT 23/19 A3016 RMK A01 T02290192  RH  079%=      5-min Rain = 0
KCR1 101140Z 04002KT 23/19 A3016 RMK A01 T02290193  RH  080%=      5-min Rain = 0
KCR1 101141Z 03002KT 23/19 A3016 RMK A01 T02290193  RH  080%=      5-min Rain = 0
KCR1 101142Z 04002KT 23/19 A3017 RMK A01 T02290194  RH  080%=      5-min Rain = 0
KCR1 101143Z 03002KT 23/19 A3017 RMK A01 T02290193  RH  080%=      5-min Rain = 0
KCR1 101144Z 03002KT 23/19 A3017 RMK A01 T02300193  RH  080%=      5-min Rain = 0
KCR1 101145Z 03002KT 23/19 A3017 RMK A01 T02300192  RH  079%=      5-min Rain = 0
KCR1 101146Z 03002KT 23/19 A3017 RMK A01 T02300192  RH  079%=      5-min Rain = 0
KCR1 101147Z 03002KT 23/19 A3017 RMK A01 T02300192  RH  079%=      5-min Rain = 0
KCR1 101148Z 05003KT 23/19 A3017 RMK A01 T02300193  RH  080%=      5-min Rain = 0
KCR1 101149Z 04003KT 23/19 A3017 RMK A01 T02300193  RH  080%=      5-min Rain = 0
KCR1 101150Z 04003KT 23/19 A3017 RMK A01 T02300193  RH  080%=      5-min Rain = 0
KCR1 101151Z 05003KT 23/19 A3017 RMK A01 T02300193  RH  080%=      5-min Rain = 0
KCR1 101152Z 05003KT 23/19 A3017 RMK A01 T02300193  RH  080%=      5-min Rain = 0
KCR1 101153Z 04002KT 23/19 A3017 RMK A01 T02300192  RH  079%=      5-min Rain = 0
KCR1 101154Z 05003KT 23/19 A3017 RMK A01 T02300192  RH  079%=      5-min Rain = 0
KCR1 101155Z 05003KT 23/19 A3017 RMK A01 T02300192  RH  079%=      5-min Rain = 0
KCR1 101156Z 05002KT 23/19 A3017 RMK A01 T02300193  RH  079%=      5-min Rain = 0
KCR1 101157Z 04002KT 23/19 A3017 RMK A01 T02310193  RH  079%=      5-min Rain = 0
KCR1 101158Z 03001KT 23/19 A3017 RMK A01 T02310192  RH  079%=      5-min Rain = 0
KCR1 101159Z 04001KT 23/19 A3017 RMK A01 T02310192  RH  079%=      5-min Rain = 0
KCR1 101200Z 04001KT 23/19 A3017 RMK A01 T02310193  RH  079%=      5-min Rain = 0
KCR1 101201Z 03001KT 23/19 A3017 RMK A01 T02320193  RH  079%=      5-min Rain = 0
KCR1 101202Z 03001KT 23/19 A3017 RMK A01 T02320193  RH  079%=      5-min Rain = 0
KCR1 101203Z 02002KT 23/19 A3017 RMK A01 T02320193  RH  079%=      5-min Rain = 0
KCR1 101204Z 02002KT 23/19 A3017 RMK A01 T02330194  RH  079%=      5-min Rain = 0
KCR1 101205Z 03002KT 23/19 A3017 RMK A01 T02330194  RH  079%=      5-min Rain = 0
KCR1 101206Z 03002KT 23/19 A3017 RMK A01 T02330194  RH  078%=      5-min Rain = 0
KCR1 101207Z 05002KT 23/19 A3016 RMK A01 T02340194  RH  078%=      5-min Rain = 0
KCR1 101208Z 04002KT 23/19 A3016 RMK A01 T02340194  RH  078%=      5-min Rain = 0
KCR1 101209Z 05001KT 23/19 A3016 RMK A01 T02340194  RH  078%=      5-min Rain = 0
KCR1 101210Z 04001KT 24/19 A3016 RMK A01 T02350194  RH  078%=      5-min Rain = 0
KCR1 101211Z 06000KT 24/20 A3016 RMK A01 T02350195  RH  078%=      5-min Rain = 0
KCR1 101212Z 06000KT 24/20 A3016 RMK A01 T02360196  RH  078%=      5-min Rain = 0
KCR1 101213Z 00000KT 24/20 A3016 RMK A01 T02370196  RH  077%=      5-min Rain = 0
KCR1 101214Z 07000KT 24/20 A3017 RMK A01 T02390195  RH  077%=      5-min Rain = 0
KCR1 101215Z 08000KT 24/20 A3017 RMK A01 T02400196  RH  076%=      5-min Rain = 0
KCR1 101216Z 10000KT 24/20 A3017 RMK A01 T02420196  RH  076%=      5-min Rain = 0
KCR1 101217Z 10001KT 24/20 A3017 RMK A01 T02420196  RH  075%=      5-min Rain = 0
KCR1 101218Z 10001KT 24/20 A3017 RMK A01 T02430195  RH  075%=      5-min Rain = 0
KCR1 101219Z 10001KT 24/20 A3017 RMK A01 T02430195  RH  075%=      5-min Rain = 0
KCR1 101220Z 09000KT 24/20 A3017 RMK A01 T02430195  RH  075%=      5-min Rain = 0
KCR1 101221Z 10001KT 24/20 A3017 RMK A01 T02430195  RH  074%=      5-min Rain = 0
KCR1 101222Z 10001KT 24/20 A3017 RMK A01 T02430195  RH  074%=      5-min Rain = 0
KCR1 101223Z 10001KT 24/20 A3017 RMK A01 T02440195  RH  074%=      5-min Rain = 0
KCR1 101224Z 11001KT 25/20 A3017 RMK A01 T02450196  RH  074%=      5-min Rain = 0
KCR1 101225Z 12001KT 25/20 A3017 RMK A01 T02450196  RH  074%=      5-min Rain = 0
KCR1 101226Z 12001KT 25/20 A3017 RMK A01 T02450196  RH  074%=      5-min Rain = 0
KCR1 101227Z 12001KT 25/20 A3017 RMK A01 T02460197  RH  074%=      5-min Rain = 0
KCR1 101228Z 13001KT 25/20 A3017 RMK A01 T02460196  RH  074%=      5-min Rain = 0
KCR1 101229Z 13002KT 25/20 A3017 RMK A01 T02460197  RH  074%=      5-min Rain = 0
KCR1 101230Z 13001KT 25/20 A3017 RMK A01 T02460197  RH  074%=      5-min Rain = 0
KCR1 101231Z 12001KT 25/20 A3017 RMK A01 T02460197  RH  074%=      5-min Rain = 0
KCR1 101232Z 11000KT 25/20 A3017 RMK A01 T02470198  RH  074%=      5-min Rain = 0
KCR1 101233Z 10000KT 25/20 A3017 RMK A01 T02490198  RH  074%=      5-min Rain = 0
KCR1 101234Z 10000KT 25/20 A3017 RMK A01 T02490198  RH  073%=      5-min Rain = 0
KCR1 101235Z 10000KT 25/20 A3017 RMK A01 T02510197  RH  072%=      5-min Rain = 0
KCR1 101236Z 08000KT 25/20 A3017 RMK A01 T02510196  RH  072%=      5-min Rain = 0
KCR1 101237Z 07000KT 25/20 A3017 RMK A01 T02520197  RH  072%=      5-min Rain = 0
KCR1 101238Z 00000KT 25/20 A3017 RMK A01 T02530198  RH  071%=      5-min Rain = 0
KCR1 101239Z 00000KT 25/20 A3017 RMK A01 T02540197  RH  071%=      5-min Rain = 0
KCR1 101240Z 04000KT 26/20 A3017 RMK A01 T02550197  RH  070%=      5-min Rain = 0
KCR1 101241Z 04001KT 26/20 A3017 RMK A01 T02550197  RH  070%=      5-min Rain = 0
KCR1 101242Z 05001KT 26/20 A3017 RMK A01 T02550197  RH  070%=      5-min Rain = 0
KCR1 101243Z 04000KT 26/20 A3017 RMK A01 T02550197  RH  070%=      5-min Rain = 0
KCR1 101244Z 00000KT 26/20 A3017 RMK A01 T02560197  RH  070%=      5-min Rain = 0
KCR1 101245Z 06000KT 26/20 A3017 RMK A01 T02550197  RH  070%=      5-min Rain = 0
KCR1 101246Z 07000KT 26/20 A3017 RMK A01 T02560197  RH  070%=      5-min Rain = 0
KCR1 101247Z 06000KT 26/20 A3017 RMK A01 T02580198  RH  069%=      5-min Rain = 0
KCR1 101248Z 00000KT 26/20 A3017 RMK A01 T02600198  RH  069%=      5-min Rain = 0
KCR1 101249Z 00000KT 26/20 A3017 RMK A01 T02610198  RH  068%=      5-min Rain = 0
KCR1 101250Z 00000KT 26/20 A3017 RMK A01 T02630198  RH  068%=      5-min Rain = 0
KCR1 101251Z 00000KT 26/20 A3017 RMK A01 T02630198  RH  067%=      5-min Rain = 0
KCR1 101252Z 10000KT 26/20 A3017 RMK A01 T02630198  RH  067%=      5-min Rain = 0
KCR1 101253Z 14001KT 26/20 A3017 RMK A01 T02640199  RH  067%=      5-min Rain = 0
KCR1 101254Z 16001KT 27/20 A3017 RMK A01 T02650199  RH  067%=      5-min Rain = 0
KCR1 101255Z 14001KT 27/20 A3017 RMK A01 T02650199  RH  067%=      5-min Rain = 0
KCR1 101256Z 13001KT 27/20 A3017 RMK A01 T02650199  RH  067%=      5-min Rain = 0
KCR1 101257Z 12001KT 27/20 A3017 RMK A01 T02650199  RH  067%=      5-min Rain = 0
KCR1 101258Z 12002KT 27/20 A3017 RMK A01 T02660199  RH  067%=      5-min Rain = 0
KCR1 101259Z 12002KT 27/20 A3017 RMK A01 T02660199  RH  067%=      5-min Rain = 0
KCR1 101300Z 12002KT 27/20 A3017 RMK A01 T02650199  RH  067%=      5-min Rain = 0
KCR1 101301Z 10002KT 27/20 A3017 RMK A01 T02650199  RH  067%=      5-min Rain = 0
KCR1 101302Z 10001KT 26/20 A3017 RMK A01 T02640198  RH  067%=      5-min Rain = 0
KCR1 101303Z 13002KT 26/20 A3017 RMK A01 T02640199  RH  067%=      5-min Rain = 0
KCR1 101304Z 11002KT 26/20 A3017 RMK A01 T02640199  RH  067%=      5-min Rain = 0
KCR1 101305Z 11002KT 26/20 A3017 RMK A01 T02640198  RH  067%=      5-min Rain = 0
KCR1 101306Z 14003KT 26/20 A3017 RMK A01 T02630198  RH  067%=      5-min Rain = 0
KCR1 101307Z 13004KT 26/20 A3017 RMK A01 T02630199  RH  068%=      5-min Rain = 0
KCR1 101308Z 13004KT 26/20 A3017 RMK A01 T02630198  RH  067%=      5-min Rain = 0
KCR1 101309Z 14004KT 26/20 A3017 RMK A01 T02630199  RH  068%=      5-min Rain = 0
KCR1 101310Z 15005KT 26/20 A3017 RMK A01 T02630199  RH  068%=      5-min Rain = 0
KCR1 101311Z 14005KT 26/20 A3017 RMK A01 T02630199  RH  068%=      5-min Rain = 0
KCR1 101312Z 13005KT 26/20 A3017 RMK A01 T02630199  RH  068%=      5-min Rain = 0
KCR1 101313Z 15004KT 26/20 A3017 RMK A01 T02620200  RH  069%=      5-min Rain = 0
KCR1 101314Z 15003KT 26/20 A3017 RMK A01 T02620201  RH  069%=      5-min Rain = 0
KCR1 101315Z 16003KT 26/20 A3017 RMK A01 T02630200  RH  069%=      5-min Rain = 0
KCR1 101316Z 15003KT 26/20 A3017 RMK A01 T02630200  RH  068%=      5-min Rain = 0
KCR1 101317Z 16003KT 26/20 A3017 RMK A01 T02620199  RH  068%=      5-min Rain = 0
KCR1 101318Z 14003KT 26/20 A3017 RMK A01 T02620201  RH  069%=      5-min Rain = 0
KCR1 101319Z 13002KT 26/20 A3017 RMK A01 T02620199  RH  068%=      5-min Rain = 0
KCR1 101320Z 13002KT 26/20 A3017 RMK A01 T02620199  RH  068%=      5-min Rain = 0
KCR1 101321Z 13003KT 26/20 A3017 RMK A01 T02630200  RH  068%=      5-min Rain = 0
KCR1 101322Z 12003KT 26/20 A3017 RMK A01 T02640200  RH  068%=      5-min Rain = 0
KCR1 101323Z 14003KT 26/20 A3017 RMK A01 T02640200  RH  068%=      5-min Rain = 0
KCR1 101324Z 12003KT 27/20 A3017 RMK A01 T02660200  RH  067%=      5-min Rain = 0
KCR1 101325Z 14003KT 27/20 A3017 RMK A01 T02660200  RH  067%=      5-min Rain = 0
KCR1 101326Z 14004KT 27/20 A3017 RMK A01 T02680201  RH  067%=      5-min Rain = 0
KCR1 101327Z 13004KT 27/20 A3017 RMK A01 T02700201  RH  066%=      5-min Rain = 0
KCR1 101328Z 13004KT 27/20 A3017 RMK A01 T02700201  RH  066%=      5-min Rain = 0
KCR1 101329Z 14004KT 27/20 A3017 RMK A01 T02690201  RH  066%=      5-min Rain = 0
KCR1 101330Z 17003KT 27/20 A3017 RMK A01 T02680200  RH  066%=      5-min Rain = 0
KCR1 101331Z 15003KT 27/20 A3017 RMK A01 T02680200  RH  066%=      5-min Rain = 0
KCR1 101332Z 12001KT 27/20 A3017 RMK A01 T02680200  RH  066%=      5-min Rain = 0
KCR1 101333Z 18001KT 27/20 A3017 RMK A01 T02690199  RH  066%=      5-min Rain = 0
KCR1 101334Z 19001KT 27/20 A3017 RMK A01 T02700200  RH  065%=      5-min Rain = 0
KCR1 101335Z 23001KT 27/20 A3017 RMK A01 T02700200  RH  065%=      5-min Rain = 0
KCR1 101336Z 15001KT 27/20 A3017 RMK A01 T02700200  RH  065%=      5-min Rain = 0
KCR1 101337Z 13001KT 27/20 A3017 RMK A01 T02700200  RH  065%=      5-min Rain = 0
KCR1 101338Z 15001KT 27/20 A3017 RMK A01 T02710200  RH  065%=      5-min Rain = 0
KCR1 101339Z 16002KT 27/20 A3018 RMK A01 T02720200  RH  065%=      5-min Rain = 0
KCR1 101340Z 18002KT 27/20 A3018 RMK A01 T02730199  RH  064%=      5-min Rain = 0
KCR1 101341Z 15001KT 27/20 A3018 RMK A01 T02740199  RH  064%=      5-min Rain = 0
KCR1 101342Z 15003KT 27/20 A3018 RMK A01 T02730199  RH  064%=      5-min Rain = 0
KCR1 101343Z 15004KT 28/20 A3018 RMK A01 T02750200  RH  064%=      5-min Rain = 0
KCR1 101344Z 15004KT 27/20 A3018 RMK A01 T02740199  RH  064%=      5-min Rain = 0
KCR1 101345Z 14002KT 27/20 A3018 RMK A01 T02720199  RH  064%=      5-min Rain = 0
KCR1 101346Z 14002KT 27/20 A3018 RMK A01 T02720199  RH  064%=      5-min Rain = 0
KCR1 101347Z 14002KT 27/20 A3018 RMK A01 T02730200  RH  064%=      5-min Rain = 0
KCR1 101348Z 20003KT 27/20 A3018 RMK A01 T02740200  RH  064%=      5-min Rain = 0
KCR1 101349Z 22003KT 28/20 A3018 RMK A01 T02760198  RH  063%=      5-min Rain = 0
KCR1 101350Z 24002KT 28/20 A3018 RMK A01 T02750198  RH  063%=      5-min Rain = 0
KCR1 101351Z 24003KT 27/20 A3018 RMK A01 T02740197  RH  063%=      5-min Rain = 0
KCR1 101352Z 24003KT 27/20 A3018 RMK A01 T02730198  RH  064%=      5-min Rain = 0
KCR1 101353Z 23003KT 27/20 A3018 RMK A01 T02730198  RH  064%=      5-min Rain = 0
KCR1 101354Z 20001KT 27/20 A3018 RMK A01 T02740198  RH  063%=      5-min Rain = 0
KCR1 101355Z 17000KT 28/20 A3018 RMK A01 T02750198  RH  063%=      5-min Rain = 0
KCR1 101356Z 20001KT 28/20 A3018 RMK A01 T02780200  RH  063%=      5-min Rain = 0
KCR1 101357Z 22003KT 28/20 A3018 RMK A01 T02780200  RH  062%=      5-min Rain = 0
KCR1 101358Z 23003KT 28/20 A3018 RMK A01 T02780200  RH  062%=      5-min Rain = 0
KCR1 101359Z 22003KT 28/20 A3018 RMK A01 T02770199  RH  062%=      5-min Rain = 0
KCR1 101400Z 22003KT 28/20 A3018 RMK A01 T02760199  RH  063%=      5-min Rain = 0
KCR1 101401Z 22002KT 28/20 A3018 RMK A01 T02760199  RH  063%=      5-min Rain = 0
KCR1 101402Z 23003KT 28/20 A3018 RMK A01 T02760199  RH  063%=      5-min Rain = 0
KCR1 101403Z 24002KT 28/20 A3018 RMK A01 T02760199  RH  063%=      5-min Rain = 0
KCR1 101404Z 25002KT 28/20 A3018 RMK A01 T02760199  RH  063%=      5-min Rain = 0
KCR1 101405Z 19003KT 28/20 A3018 RMK A01 T02760200  RH  063%=      5-min Rain = 0
KCR1 101406Z 21004KT 28/20 A3018 RMK A01 T02790201  RH  062%=      5-min Rain = 0
KCR1 101407Z 22003KT 28/20 A3018 RMK A01 T02800200  RH  062%=      5-min Rain = 0
KCR1 101408Z 23003KT 28/20 A3018 RMK A01 T02800200  RH  062%=      5-min Rain = 0
KCR1 101409Z 22003KT 28/20 A3018 RMK A01 T02790200  RH  062%=      5-min Rain = 0
KCR1 101410Z 19004KT 28/20 A3018 RMK A01 T02800200  RH  062%=      5-min Rain = 0
KCR1 101411Z 18002KT 28/20 A3018 RMK A01 T02800199  RH  061%=      5-min Rain = 0
KCR1 101412Z 19002KT 28/20 A3018 RMK A01 T02800199  RH  062%=      5-min Rain = 0
KCR1 101413Z 18002KT 28/20 A3018 RMK A01 T02800200  RH  062%=      5-min Rain = 0
KCR1 101414Z 18003KT 28/20 A3018 RMK A01 T02810200  RH  061%=      5-min Rain = 0
KCR1 101415Z 16003KT 28/20 A3018 RMK A01 T02820200  RH  061%=      5-min Rain = 0
KCR1 101416Z 18003KT 28/20 A3018 RMK A01 T02820200  RH  061%=      5-min Rain = 0
KCR1 101417Z 22004KT 28/20 A3018 RMK A01 T02830200  RH  061%=      5-min Rain = 0
KCR1 101418Z 22004KT 28/20 A3018 RMK A01 T02830200  RH  061%=      5-min Rain = 0
KCR1 101419Z 21003KT 28/20 A3018 RMK A01 T02830199  RH  060%=      5-min Rain = 0
KCR1 101420Z 21003KT 28/20 A3018 RMK A01 T02830199  RH  060%=      5-min Rain = 0
KCR1 101421Z 22003KT 28/20 A3018 RMK A01 T02830199  RH  060%=      5-min Rain = 0
KCR1 101422Z 19004KT 28/20 A3018 RMK A01 T02830199  RH  060%=      5-min Rain = 0
KCR1 101423Z 19003KT 28/20 A3018 RMK A01 T02830200  RH  061%=      5-min Rain = 0
KCR1 101424Z 20001KT 28/20 A3018 RMK A01 T02820200  RH  061%=      5-min Rain = 0
KCR1 101425Z 21003KT 28/20 A3018 RMK A01 T02840200  RH  060%=      5-min Rain = 0
KCR1 101426Z 19004KT 29/20 A3018 RMK A01 T02850199  RH  059%=      5-min Rain = 0
KCR1 101427Z 20004KT 29/20 A3018 RMK A01 T02860198  RH  059%=      5-min Rain = 0
KCR1 101428Z 21004KT 29/20 A3018 RMK A01 T02870199  RH  059%=      5-min Rain = 0
KCR1 101429Z 20003KT 29/20 A3018 RMK A01 T02880200  RH  059%=      5-min Rain = 0
KCR1 101430Z 19003KT 29/20 A3018 RMK A01 T02890199  RH  059%=      5-min Rain = 0
KCR1 101431Z 20003KT 29/20 A3018 RMK A01 T02880200  RH  059%=      5-min Rain = 0
KCR1 101432Z 21002KT 29/20 A3018 RMK A01 T02870199  RH  059%=      5-min Rain = 0
KCR1 101433Z 21002KT 29/20 A3018 RMK A01 T02870200  RH  060%=      5-min Rain = 0
KCR1 101434Z 22004KT 29/20 A3018 RMK A01 T02890201  RH  059%=      5-min Rain = 0
KCR1 101435Z 21004KT 29/20 A3018 RMK A01 T02900200  RH  058%=      5-min Rain = 0
KCR1 101436Z 21004KT 29/20 A3018 RMK A01 T02900200  RH  058%=      5-min Rain = 0
KCR1 101437Z 21002KT 29/20 A3018 RMK A01 T02890198  RH  058%=      5-min Rain = 0
KCR1 101438Z 19003KT 29/20 A3018 RMK A01 T02880198  RH  058%=      5-min Rain = 0
KCR1 101439Z 20004KT 29/20 A3018 RMK A01 T02880198  RH  058%=      5-min Rain = 0
KCR1 101440Z 25004KT 29/20 A3018 RMK A01 T02900199  RH  058%=      5-min Rain = 0
KCR1 101441Z 27003KT 29/20 A3018 RMK A01 T02910199  RH  058%=      5-min Rain = 0
KCR1 101442Z 26002KT 29/20 A3018 RMK A01 T02900199  RH  058%=      5-min Rain = 0
KCR1 101443Z 18003KT 29/20 A3018 RMK A01 T02900200  RH  058%=      5-min Rain = 0
KCR1 101444Z 19004KT 29/20 A3018 RMK A01 T02920199  RH  058%=      5-min Rain = 0
KCR1 101445Z 20005KT 29/20 A3018 RMK A01 T02920198  RH  057%=      5-min Rain = 0
KCR1 101446Z 22004KT 29/20 A3018 RMK A01 T02910198  RH  057%=      5-min Rain = 0
KCR1 101447Z 21004KT 29/20 A3018 RMK A01 T02910200  RH  058%=      5-min Rain = 0
KCR1 101448Z 19005KT 30/20 A3018 RMK A01 T02950201  RH  057%=      5-min Rain = 0
KCR1 101449Z 18004KT 30/20 A3018 RMK A01 T02970200  RH  056%=      5-min Rain = 0
KCR1 101450Z 21005KT 30/20 A3018 RMK A01 T02970200  RH  056%=      5-min Rain = 0
KCR1 101451Z 22004KT 30/20 A3018 RMK A01 T02970199  RH  056%=      5-min Rain = 0
KCR1 101452Z 21006KT 30/20 A3018 RMK A01 T02960199  RH  056%=      5-min Rain = 0
KCR1 101453Z 21004KT 30/20 A3018 RMK A01 T02970199  RH  056%=      5-min Rain = 0
KCR1 101454Z 20001KT 30/20 A3018 RMK A01 T02950199  RH  056%=      5-min Rain = 0
KCR1 101455Z 19004KT 30/20 A3018 RMK A01 T02960199  RH  056%=      5-min Rain = 0
KCR1 101456Z 20005KT 30/20 A3018 RMK A01 T02980199  RH  055%=      5-min Rain = 0
KCR1 101457Z 20006KT 30/20 A3018 RMK A01 T02990199  RH  055%=      5-min Rain = 0
KCR1 101458Z 20006KT 30/20 A3018 RMK A01 T02980199  RH  055%=      5-min Rain = 0
KCR1 101459Z 18004KT 30/20 A3018 RMK A01 T02980198  RH  055%=      5-min Rain = 0
KCR1 101500Z 19003KT 30/20 A3018 RMK A01 T02980198  RH  055%=      5-min Rain = 0
KCR1 101501Z 21004KT 30/20 A3018 RMK A01 T02980198  RH  055%=      5-min Rain = 0
KCR1 101502Z 18004KT 30/20 A3018 RMK A01 T02980197  RH  055%=      5-min Rain = 0
KCR1 101503Z 18003KT 30/20 A3018 RMK A01 T02990198  RH  055%=      5-min Rain = 0
KCR1 101504Z 19002KT 30/20 A3018 RMK A01 T02990197  RH  055%=      5-min Rain = 0
KCR1 101505Z 20002KT 30/20 A3018 RMK A01 T02990198  RH  055%=      5-min Rain = 0
KCR1 101506Z 19005KT 30/20 A3018 RMK A01 T02990199  RH  055%=      5-min Rain = 0
KCR1 101507Z 17005KT 30/20 A3018 RMK A01 T03000198  RH  054%=      5-min Rain = 0
KCR1 101508Z 16005KT 30/20 A3018 RMK A01 T03020198  RH  054%=      5-min Rain = 0
KCR1 101509Z 19004KT 30/20 A3018 RMK A01 T03010197  RH  054%=      5-min Rain = 0
KCR1 101510Z 19003KT 30/20 A3018 RMK A01 T03000197  RH  054%=      5-min Rain = 0
KCR1 101511Z 16002KT 30/20 A3018 RMK A01 T02990198  RH  054%=      5-min Rain = 0
KCR1 101512Z 16004KT 30/20 A3018 RMK A01 T03010198  RH  054%=      5-min Rain = 0
KCR1 101513Z 15002KT 30/20 A3018 RMK A01 T03030197  RH  053%=      5-min Rain = 0
KCR1 101514Z 19003KT 30/20 A3018 RMK A01 T03040197  RH  053%=      5-min Rain = 0
KCR1 101515Z 22007KT 31/20 A3018 RMK A01 T03060198  RH  053%=      5-min Rain = 0
KCR1 101516Z 25004KT 31/20 A3018 RMK A01 T03100199  RH  052%=      5-min Rain = 0
KCR1 101517Z 24004KT 31/20 A3018 RMK A01 T03100198  RH  051%=      5-min Rain = 0
KCR1 101518Z 20004KT 31/20 A3018 RMK A01 T03100197  RH  051%=      5-min Rain = 0
KCR1 101519Z 17004KT 31/20 A3018 RMK A01 T03100196  RH  051%=      5-min Rain = 0
KCR1 101520Z 19005KT 31/20 A3018 RMK A01 T03100195  RH  050%=      5-min Rain = 0
KCR1 101521Z 20004KT 31/19 A3018 RMK A01 T03080194  RH  051%=      5-min Rain = 0
KCR1 101522Z 19003KT 31/19 A3018 RMK A01 T03060193  RH  051%=      5-min Rain = 0
KCR1 101523Z 19004KT 31/19 A3017 RMK A01 T03060194  RH  051%=      5-min Rain = 0
KCR1 101524Z 20007KT 31/20 A3017 RMK A01 T03070196  RH  051%=      5-min Rain = 0
KCR1 101525Z 20006KT 31/20 A3017 RMK A01 T03070195  RH  051%=      5-min Rain = 0
KCR1 101526Z 21004KT 31/20 A3017 RMK A01 T03060195  RH  051%=      5-min Rain = 0
KCR1 101527Z 21007KT 31/20 A3017 RMK A01 T03070195  RH  051%=      5-min Rain = 0
KCR1 101528Z 23008KT 31/20 A3017 RMK A01 T03080196  RH  051%=      5-min Rain = 0
KCR1 101529Z 22006KT 31/20 A3017 RMK A01 T03100196  RH  050%=      5-min Rain = 0
KCR1 101530Z 19006KT 31/19 A3017 RMK A01 T03110194  RH  050%=      5-min Rain = 0
KCR1 101531Z 22005KT 31/20 A3017 RMK A01 T03110195  RH  050%=      5-min Rain = 0
KCR1 101532Z 22004KT 31/20 A3017 RMK A01 T03090196  RH  051%=      5-min Rain = 0
KCR1 101533Z 24004KT 31/20 A3017 RMK A01 T03080195  RH  051%=      5-min Rain = 0
KCR1 101534Z 24002KT 31/19 A3017 RMK A01 T03070194  RH  051%=      5-min Rain = 0
KCR1 101535Z 25004KT 31/20 A3017 RMK A01 T03070195  RH  051%=      5-min Rain = 0
KCR1 101536Z 24004KT 31/20 A3017 RMK A01 T03080195  RH  051%=      5-min Rain = 0
KCR1 101537Z 23006KT 31/20 A3017 RMK A01 T03110198  RH  051%=      5-min Rain = 0
KCR1 101538Z 25005KT 31/20 A3017 RMK A01 T03120197  RH  050%=      5-min Rain = 0
KCR1 101539Z 24006KT 31/20 A3017 RMK A01 T03130196  RH  050%=      5-min Rain = 0
KCR1 101540Z 22005KT 31/20 A3017 RMK A01 T03120196  RH  050%=      5-min Rain = 0
KCR1 101541Z 23004KT 31/19 A3017 RMK A01 T03120194  RH  050%=      5-min Rain = 0
KCR1 101542Z 23003KT 31/20 A3017 RMK A01 T03110195  RH  050%=      5-min Rain = 0
KCR1 101543Z 22007KT 31/20 A3017 RMK A01 T03110196  RH  050%=      5-min Rain = 0
KCR1 101544Z 21009KT 31/20 A3017 RMK A01 T03140195  RH  049%=      5-min Rain = 0
KCR1 101545Z 19008KT 32/19 A3017 RMK A01 T03150194  RH  049%=      5-min Rain = 0
KCR1 101546Z 19007KT 32/19 A3017 RMK A01 T03150193  RH  048%=      5-min Rain = 0
KCR1 101547Z 19008KT 31/19 A3017 RMK A01 T03120193  RH  049%=      5-min Rain = 0
KCR1 101548Z 19008KT 31/19 A3017 RMK A01 T03120193  RH  049%=      5-min Rain = 0
KCR1 101549Z 19006KT 31/19 A3017 RMK A01 T03110193  RH  050%=      5-min Rain = 0
KCR1 101550Z 20006KT 31/20 A3017 RMK A01 T03110195  RH  050%=      5-min Rain = 0
KCR1 101551Z 21006KT 31/19 A3017 RMK A01 T03140194  RH  049%=      5-min Rain = 0
KCR1 101552Z 21002KT 31/20 A3017 RMK A01 T03140195  RH  049%=      5-min Rain = 0
KCR1 101553Z 22002KT 32/20 A3017 RMK A01 T03150195  RH  049%=      5-min Rain = 0
KCR1 101554Z 29004KT 32/19 A3017 RMK A01 T03160194  RH  048%=      5-min Rain = 0
KCR1 101555Z 30002KT 31/19 A3017 RMK A01 T03140193  RH  049%=      5-min Rain = 0
KCR1 101556Z 24002KT 31/19 A3017 RMK A01 T03130194  RH  049%=      5-min Rain = 0
KCR1 101557Z 18004KT 32/19 A3017 RMK A01 T03150194  RH  049%=      5-min Rain = 0
KCR1 101558Z 20003KT 32/20 A3017 RMK A01 T03180196  RH  048%=      5-min Rain = 0
KCR1 101559Z 18006KT 32/19 A3017 RMK A01 T03180194  RH  048%=      5-min Rain = 0
KCR1 101600Z 16006KT 32/19 A3017 RMK A01 T03180193  RH  048%=      5-min Rain = 0
KCR1 101601Z 09003KT 32/19 A3017 RMK A01 T03170192  RH  047%=      5-min Rain = 0
KCR1 101602Z 05004KT 32/19 A3017 RMK A01 T03150192  RH  048%=      5-min Rain = 0
KCR1 101603Z 06004KT 31/19 A3017 RMK A01 T03130193  RH  049%=      5-min Rain = 0
KCR1 101604Z 06001KT 31/19 A3017 RMK A01 T03130193  RH  049%=      5-min Rain = 0
KCR1 101605Z 22003KT 31/19 A3017 RMK A01 T03140193  RH  049%=      5-min Rain = 0
KCR1 101606Z 19003KT 32/19 A3017 RMK A01 T03150194  RH  049%=      5-min Rain = 0
KCR1 101607Z 19005KT 32/19 A3017 RMK A01 T03160194  RH  048%=      5-min Rain = 0
KCR1 101608Z 19004KT 32/19 A3017 RMK A01 T03160193  RH  048%=      5-min Rain = 0
KCR1 101609Z 19005KT 32/19 A3017 RMK A01 T03160193  RH  048%=      5-min Rain = 0
KCR1 101610Z 19008KT 32/19 A3017 RMK A01 T03170193  RH  048%=      5-min Rain = 0
KCR1 101611Z 17005KT 32/19 A3017 RMK A01 T03160192  RH  048%=      5-min Rain = 0
KCR1 101612Z 15003KT 32/19 A3017 RMK A01 T03150193  RH  048%=      5-min Rain = 0
KCR1 101613Z 12002KT 32/19 A3017 RMK A01 T03160192  RH  048%=      5-min Rain = 0
KCR1 101614Z 14003KT 32/19 A3017 RMK A01 T03180194  RH  048%=      5-min Rain = 0
KCR1 101615Z 16004KT 32/19 A3017 RMK A01 T03200194  RH  047%=      5-min Rain = 0
KCR1 101616Z 15003KT 32/19 A3017 RMK A01 T03200193  RH  047%=      5-min Rain = 0
KCR1 101617Z 15003KT 32/19 A3017 RMK A01 T03180192  RH  047%=      5-min Rain = 0
KCR1 101618Z 15003KT 32/19 A3017 RMK A01 T03170193  RH  048%=      5-min Rain = 0
KCR1 101619Z 15004KT 32/19 A3017 RMK A01 T03210194  RH  047%=      5-min Rain = 0
KCR1 101620Z 18004KT 33/20 A3017 RMK A01 T03250195  RH  046%=      5-min Rain = 0
KCR1 101621Z 17007KT 33/19 A3017 RMK A01 T03280194  RH  045%=      5-min Rain = 0
KCR1 101622Z 18005KT 33/19 A3017 RMK A01 T03280193  RH  045%=      5-min Rain = 0
KCR1 101623Z 18004KT 33/19 A3017 RMK A01 T03250193  RH  046%=      5-min Rain = 0
KCR1 101624Z 17007KT 33/19 A3017 RMK A01 T03250194  RH  046%=      5-min Rain = 0
KCR1 101625Z 16004KT 33/19 A3017 RMK A01 T03260194  RH  046%=      5-min Rain = 0
KCR1 101626Z 15004KT 33/19 A3017 RMK A01 T03250193  RH  046%=      5-min Rain = 0
KCR1 101627Z 15007KT 32/19 A3017 RMK A01 T03230193  RH  046%=      5-min Rain = 0
KCR1 101628Z 16006KT 32/19 A3017 RMK A01 T03220193  RH  046%=      5-min Rain = 0
KCR1 101629Z 16006KT 32/19 A3017 RMK A01 T03220193  RH  046%=      5-min Rain = 0
KCR1 101630Z 19005KT 32/19 A3017 RMK A01 T03200193  RH  047%=      5-min Rain = 0
KCR1 101631Z 16007KT 32/19 A3017 RMK A01 T03170192  RH  047%=      5-min Rain = 0
KCR1 101632Z 15008KT 32/19 A3017 RMK A01 T03170191  RH  047%=      5-min Rain = 0
KCR1 101633Z 15007KT 32/19 A3017 RMK A01 T03190191  RH  047%=      5-min Rain = 0
KCR1 101634Z 16003KT 32/19 A3017 RMK A01 T03200192  RH  047%=      5-min Rain = 0
KCR1 101635Z 19004KT 32/19 A3017 RMK A01 T03220193  RH  047%=      5-min Rain = 0
KCR1 101636Z 18007KT 32/19 A3017 RMK A01 T03230194  RH  046%=      5-min Rain = 0
KCR1 101637Z 18005KT 33/20 A3017 RMK A01 T03250195  RH  046%=      5-min Rain = 0
KCR1 101638Z 19003KT 32/19 A3017 RMK A01 T03210192  RH  046%=      5-min Rain = 0
KCR1 101639Z 17003KT 32/20 A3017 RMK A01 T03230196  RH  047%=      5-min Rain = 0
KCR1 101640Z 16002KT 33/20 A3016 RMK A01 T03270195  RH  046%=      5-min Rain = 0
KCR1 101641Z 12002KT 33/20 A3016 RMK A01 T03280196  RH  046%=      5-min Rain = 0
KCR1 101642Z 19003KT 33/20 A3016 RMK A01 T03290196  RH  045%=      5-min Rain = 0
KCR1 101643Z 22006KT 33/20 A3016 RMK A01 T03270195  RH  046%=      5-min Rain = 0
KCR1 101644Z 23007KT 33/20 A3016 RMK A01 T03250196  RH  046%=      5-min Rain = 0
KCR1 101645Z 20008KT 32/20 A3016 RMK A01 T03240195  RH  046%=      5-min Rain = 0
KCR1 101646Z 22006KT 32/20 A3016 RMK A01 T03230195  RH  047%=      5-min Rain = 0
KCR1 101647Z 22005KT 32/19 A3016 RMK A01 T03220192  RH  046%=      5-min Rain = 0
KCR1 101648Z 24007KT 32/19 A3016 RMK A01 T03220193  RH  047%=      5-min Rain = 0
KCR1 101649Z 22008KT 33/19 A3016 RMK A01 T03250194  RH  046%=      5-min Rain = 0
KCR1 101650Z 22005KT 33/19 A3016 RMK A01 T03260193  RH  045%=      5-min Rain = 0
KCR1 101651Z 21006KT 32/19 A3016 RMK A01 T03230192  RH  046%=      5-min Rain = 0
KCR1 101652Z 21005KT 32/19 A3016 RMK A01 T03200193  RH  047%=      5-min Rain = 0
KCR1 101653Z 19004KT 32/19 A3016 RMK A01 T03230194  RH  047%=      5-min Rain = 0
KCR1 101654Z 18005KT 33/19 A3016 RMK A01 T03260193  RH  045%=      5-min Rain = 0
KCR1 101655Z 18005KT 33/19 A3016 RMK A01 T03260192  RH  045%=      5-min Rain = 0
KCR1 101656Z 13002KT 33/19 A3016 RMK A01 T03250189  RH  045%=      5-min Rain = 0
KCR1 101657Z 14006KT 33/19 A3016 RMK A01 T03250188  RH  044%=      5-min Rain = 0
KCR1 101658Z 12005KT 33/19 A3016 RMK A01 T03300190  RH  044%=      5-min Rain = 0
KCR1 101659Z 16010KT 33/19 A3015 RMK A01 T03320191  RH  043%=      5-min Rain = 0
KCR1 101700Z 16011KT 33/19 A3016 RMK A01 T03330191  RH  043%=      5-min Rain = 0
KCR1 101701Z 15010KT 33/19 A3016 RMK A01 T03330191  RH  043%=      5-min Rain = 0
KCR1 101702Z 15009KT 33/19 A3016 RMK A01 T03320192  RH  044%=      5-min Rain = 0
KCR1 101703Z 15009KT 33/19 A3015 RMK A01 T03330191  RH  043%=      5-min Rain = 0
KCR1 101704Z 16007KT 33/19 A3016 RMK A01 T03320190  RH  043%=      5-min Rain = 0
KCR1 101705Z 16007KT 33/19 A3015 RMK A01 T03290189  RH  044%=      5-min Rain = 0
KCR1 101706Z 17007KT 33/19 A3015 RMK A01 T03290190  RH  044%=      5-min Rain = 0
KCR1 101707Z 17006KT 33/19 A3015 RMK A01 T03300189  RH  044%=      5-min Rain = 0
KCR1 101708Z 15006KT 33/19 A3015 RMK A01 T03320189  RH  043%=      5-min Rain = 0
KCR1 101709Z 11003KT 33/19 A3015 RMK A01 T03320189  RH  043%=      5-min Rain = 0
KCR1 101710Z 14005KT 33/19 A3015 RMK A01 T03310189  RH  043%=      5-min Rain = 0
KCR1 101711Z 14003KT 34/19 A3015 RMK A01 T03350191  RH  043%=      5-min Rain = 0
KCR1 101712Z 11003KT 34/19 A3015 RMK A01 T03380189  RH  041%=      5-min Rain = 0
KCR1 101713Z 06003KT 34/19 A3015 RMK A01 T03360188  RH  042%=      5-min Rain = 0
KCR1 101714Z 02002KT 33/19 A3015 RMK A01 T03330189  RH  043%=      5-min Rain = 0
KCR1 101715Z 20005KT 33/19 A3015 RMK A01 T03330189  RH  043%=      5-min Rain = 0
KCR1 101716Z 19007KT 33/19 A3015 RMK A01 T03340189  RH  042%=      5-min Rain = 0
KCR1 101717Z 18005KT 34/19 A3015 RMK A01 T03360188  RH  042%=      5-min Rain = 0
KCR1 101718Z 19005KT 33/19 A3015 RMK A01 T03340187  RH  042%=      5-min Rain = 0
KCR1 101719Z 17004KT 33/19 A3015 RMK A01 T03310186  RH  042%=      5-min Rain = 0
KCR1 101720Z 17003KT 33/19 A3015 RMK A01 T03300186  RH  043%=      5-min Rain = 0
KCR1 101721Z 24003KT 33/19 A3015 RMK A01 T03300187  RH  043%=      5-min Rain = 0
KCR1 101722Z 26003KT 33/19 A3015 RMK A01 T03330185  RH  041%=      5-min Rain = 0
KCR1 101723Z 15003KT 34/19 A3015 RMK A01 T03350187  RH  042%=      5-min Rain = 0
KCR1 101724Z 13003KT 34/19 A3015 RMK A01 T03350188  RH  042%=      5-min Rain = 0
KCR1 101725Z 11002KT 34/19 A3015 RMK A01 T03350188  RH  042%=      5-min Rain = 0
KCR1 101726Z 11003KT 34/19 A3015 RMK A01 T03370188  RH  041%=      5-min Rain = 0
KCR1 101727Z 14003KT 34/19 A3015 RMK A01 T03390186  RH  041%=      5-min Rain = 0
KCR1 101728Z 15004KT 34/19 A3015 RMK A01 T03370186  RH  041%=      5-min Rain = 0
KCR1 101729Z 13007KT 34/19 A3015 RMK A01 T03380189  RH  041%=      5-min Rain = 0
KCR1 101730Z 11007KT 34/19 A3015 RMK A01 T03390188  RH  041%=      5-min Rain = 0
KCR1 101731Z 13007KT 34/19 A3015 RMK A01 T03390190  RH  042%=      5-min Rain = 0
KCR1 101732Z 13004KT 34/19 A3015 RMK A01 T03390190  RH  042%=      5-min Rain = 0
KCR1 101733Z 15007KT 34/19 A3014 RMK A01 T03410190  RH  041%=      5-min Rain = 0
KCR1 101734Z 16008KT 34/19 A3014 RMK A01 T03410187  RH  040%=      5-min Rain = 0
KCR1 101735Z 14005KT 34/19 A3014 RMK A01 T03370185  RH  041%=      5-min Rain = 0
KCR1 101736Z 12006KT 34/19 A3014 RMK A01 T03360186  RH  041%=      5-min Rain = 0
KCR1 101737Z 13004KT 34/19 A3014 RMK A01 T03370185  RH  041%=      5-min Rain = 0
KCR1 101738Z 12004KT 34/19 A3014 RMK A01 T03370186  RH  041%=      5-min Rain = 0
KCR1 101739Z 11004KT 34/19 A3014 RMK A01 T03360186  RH  041%=      5-min Rain = 0
KCR1 101740Z 14003KT 34/19 A3014 RMK A01 T03350186  RH  041%=      5-min Rain = 0
KCR1 101741Z 20006KT 34/19 A3014 RMK A01 T03370186  RH  041%=      5-min Rain = 0
KCR1 101742Z 18005KT 34/19 A3014 RMK A01 T03380185  RH  040%=      5-min Rain = 0
KCR1 101743Z 19004KT 34/18 A3014 RMK A01 T03380184  RH  040%=      5-min Rain = 0
KCR1 101744Z 24003KT 34/19 A3014 RMK A01 T03350185  RH  041%=      5-min Rain = 0
KCR1 101745Z 26002KT 34/19 A3014 RMK A01 T03360186  RH  041%=      5-min Rain = 0
KCR1 101746Z 23001KT 34/19 A3014 RMK A01 T03380187  RH  041%=      5-min Rain = 0
KCR1 101747Z 09001KT 34/19 A3014 RMK A01 T03400185  RH  040%=      5-min Rain = 0
KCR1 101748Z 14004KT 34/19 A3013 RMK A01 T03410188  RH  041%=      5-min Rain = 0
KCR1 101749Z 17004KT 34/19 A3013 RMK A01 T03410186  RH  040%=      5-min Rain = 0
KCR1 101750Z 19004KT 34/19 A3013 RMK A01 T03380185  RH  040%=      5-min Rain = 0
KCR1 101751Z 13006KT 34/19 A3013 RMK A01 T03370187  RH  041%=      5-min Rain = 0
KCR1 101752Z 11005KT 34/19 A3013 RMK A01 T03350187  RH  041%=      5-min Rain = 0
KCR1 101753Z 25006KT 33/19 A3013 RMK A01 T03330187  RH  042%=      5-min Rain = 0
KCR1 101754Z 24002KT 33/19 A3013 RMK A01 T03270187  RH  043%=      5-min Rain = 0
KCR1 101755Z 17002KT 33/19 A3013 RMK A01 T03250187  RH  044%=      5-min Rain = 0
KCR1 101756Z 21003KT 33/19 A3013 RMK A01 T03270187  RH  044%=      5-min Rain = 0
KCR1 101757Z 21006KT 33/19 A3013 RMK A01 T03290188  RH  043%=      5-min Rain = 0
KCR1 101758Z 23006KT 33/19 A3013 RMK A01 T03320189  RH  043%=      5-min Rain = 0
KCR1 101759Z 24008KT 33/19 A3013 RMK A01 T03330188  RH  042%=      5-min Rain = 0
KCR1 101800Z 23005KT 33/19 A3013 RMK A01 T03340188  RH  042%=      5-min Rain = 0
KCR1 101801Z 24002KT 33/19 A3013 RMK A01 T03330187  RH  042%=      5-min Rain = 0
KCR1 101802Z 20001KT 33/19 A3013 RMK A01 T03330187  RH  042%=      5-min Rain = 0
KCR1 101803Z 12002KT 34/19 A3013 RMK A01 T03350188  RH  042%=      5-min Rain = 0
KCR1 101804Z 21003KT 34/19 A3013 RMK A01 T03350187  RH  042%=      5-min Rain = 0
KCR1 101805Z 22007KT 34/19 A3013 RMK A01 T03370189  RH  042%=      5-min Rain = 0
KCR1 101806Z 21005KT 34/19 A3013 RMK A01 T03390188  RH  041%=      5-min Rain = 0
KCR1 101807Z 20003KT 34/19 A3013 RMK A01 T03380187  RH  041%=      5-min Rain = 0
KCR1 101808Z 13004KT 34/19 A3013 RMK A01 T03380186  RH  041%=      5-min Rain = 0
KCR1 101809Z 09001KT 34/19 A3013 RMK A01 T03390187  RH  041%=      5-min Rain = 0
KCR1 101810Z 20003KT 34/19 A3013 RMK A01 T03420188  RH  040%=      5-min Rain = 0
KCR1 101811Z 19001KT 35/19 A3013 RMK A01 T03470190  RH  040%=      5-min Rain = 0
KCR1 101812Z 23004KT 35/19 A3013 RMK A01 T03490188  RH  039%=      5-min Rain = 0
KCR1 101813Z 22004KT 35/19 A3013 RMK A01 T03480188  RH  039%=      5-min Rain = 0
KCR1 101814Z 23006KT 35/19 A3013 RMK A01 T03460188  RH  039%=      5-min Rain = 0
KCR1 101815Z 22006KT 34/19 A3013 RMK A01 T03440186  RH  039%=      5-min Rain = 0
KCR1 101816Z 22010KT 34/19 A3012 RMK A01 T03430187  RH  040%=      5-min Rain = 0
KCR1 101817Z 22009KT 35/19 A3013 RMK A01 T03450188  RH  040%=      5-min Rain = 0
KCR1 101818Z 22006KT 34/19 A3013 RMK A01 T03440187  RH  039%=      5-min Rain = 0
KCR1 101819Z 20005KT 34/19 A3013 RMK A01 T03420187  RH  040%=      5-min Rain = 0
KCR1 101820Z 18003KT 34/19 A3013 RMK A01 T03420187  RH  040%=      5-min Rain = 0
KCR1 101821Z 15007KT 35/19 A3012 RMK A01 T03450191  RH  040%=      5-min Rain = 0
KCR1 101822Z 14008KT 35/19 A3012 RMK A01 T03480190  RH  039%=      5-min Rain = 0
KCR1 101823Z 14004KT 35/19 A3012 RMK A01 T03470188  RH  039%=      5-min Rain = 0
KCR1 101824Z 14007KT 35/19 A3012 RMK A01 T03460189  RH  040%=      5-min Rain = 0
KCR1 101825Z 13008KT 35/19 A3012 RMK A01 T03480187  RH  039%=      5-min Rain = 0
KCR1 101826Z 13006KT 35/19 A3012 RMK A01 T03470185  RH  039%=      5-min Rain = 0
KCR1 101827Z 15007KT 35/19 A3012 RMK A01 T03450186  RH  039%=      5-min Rain = 0
KCR1 101828Z 16005KT 34/19 A3012 RMK A01 T03430185  RH  039%=      5-min Rain = 0
KCR1 101829Z 12003KT 34/19 A3012 RMK A01 T03410185  RH  040%=      5-min Rain = 0
KCR1 101830Z 14004KT 34/19 A3012 RMK A01 T03430186  RH  040%=      5-min Rain = 0
KCR1 101831Z 13005KT 34/19 A3012 RMK A01 T03440186  RH  039%=      5-min Rain = 0
KCR1 101832Z 12005KT 35/19 A3012 RMK A01 T03460187  RH  039%=      5-min Rain = 0
KCR1 101833Z 15007KT 35/19 A3012 RMK A01 T03460187  RH  039%=      5-min Rain = 0
KCR1 101834Z 15008KT 35/19 A3012 RMK A01 T03470186  RH  039%=      5-min Rain = 0
KCR1 101835Z 15007KT 35/19 A3012 RMK A01 T03490187  RH  038%=      5-min Rain = 0
KCR1 101836Z 19010KT 35/19 A3012 RMK A01 T03520187  RH  038%=      5-min Rain = 0
KCR1 101837Z 19006KT 35/19 A3012 RMK A01 T03490185  RH  038%=      5-min Rain = 0
KCR1 101838Z 19007KT 35/19 A3012 RMK A01 T03470185  RH  038%=      5-min Rain = 0
KCR1 101839Z 20007KT 35/19 A3012 RMK A01 T03510185  RH  038%=      5-min Rain = 0
KCR1 101840Z 20007KT 35/18 A3012 RMK A01 T03490184  RH  038%=      5-min Rain = 0
KCR1 101841Z 19008KT 35/19 A3012 RMK A01 T03470185  RH  038%=      5-min Rain = 0
KCR1 101842Z 18007KT 35/18 A3012 RMK A01 T03470183  RH  038%=      5-min Rain = 0
KCR1 101843Z 17009KT 35/19 A3012 RMK A01 T03450185  RH  039%=      5-min Rain = 0
KCR1 101844Z 17006KT 35/19 A3012 RMK A01 T03460185  RH  039%=      5-min Rain = 0
KCR1 101845Z 15005KT 35/19 A3012 RMK A01 T03460186  RH  039%=      5-min Rain = 0
KCR1 101846Z 14005KT 35/19 A3012 RMK A01 T03490187  RH  038%=      5-min Rain = 0
KCR1 101847Z 13003KT 35/19 A3011 RMK A01 T03490186  RH  038%=      5-min Rain = 0
KCR1 101848Z 15001KT 35/19 A3011 RMK A01 T03460186  RH  039%=      5-min Rain = 0
KCR1 101849Z 22005KT 35/19 A3011 RMK A01 T03460185  RH  039%=      5-min Rain = 0
KCR1 101850Z 27004KT 35/19 A3011 RMK A01 T03450185  RH  039%=      5-min Rain = 0
KCR1 101851Z 32002KT 34/18 A3011 RMK A01 T03420184  RH  039%=      5-min Rain = 0
KCR1 101852Z 23002KT 34/19 A3011 RMK A01 T03410185  RH  040%=      5-min Rain = 0
KCR1 101853Z 22005KT 34/19 A3011 RMK A01 T03440186  RH  039%=      5-min Rain = 0
KCR1 101854Z 19007KT 35/19 A3011 RMK A01 T03470186  RH  039%=      5-min Rain = 0
KCR1 101855Z 17008KT 35/19 A3011 RMK A01 T03520187  RH  038%=      5-min Rain = 0
KCR1 101856Z 17007KT 36/19 A3011 RMK A01 T03550189  RH  038%=      5-min Rain = 0
KCR1 101857Z 16007KT 36/19 A3011 RMK A01 T03570188  RH  037%=      5-min Rain = 0
KCR1 101858Z 13007KT 36/19 A3011 RMK A01 T03570186  RH  037%=      5-min Rain = 0
KCR1 101859Z 13009KT 36/19 A3011 RMK A01 T03550185  RH  037%=      5-min Rain = 0
KCR1 101900Z 11005KT 35/18 A3011 RMK A01 T03510183  RH  037%=      5-min Rain = 0
KCR1 101901Z 12002KT 35/18 A3011 RMK A01 T03480183  RH  038%=      5-min Rain = 0
KCR1 101902Z 08001KT 35/18 A3011 RMK A01 T03460183  RH  038%=      5-min Rain = 0
KCR1 101903Z 11003KT 35/18 A3011 RMK A01 T03470184  RH  038%=      5-min Rain = 0
KCR1 101904Z 09005KT 35/19 A301 RMK A01 T03500186  RH  038%=      5-min Rain = 0
KCR1 101905Z 10006KT 35/19 A301 RMK A01 T03510186  RH  038%=      5-min Rain = 0
KCR1 101906Z 07005KT 35/19 A301 RMK A01 T03500185  RH  038%=      5-min Rain = 0
KCR1 101907Z 07004KT 35/19 A301 RMK A01 T03480185  RH  038%=      5-min Rain = 0
KCR1 101908Z 08006KT 35/19 A301 RMK A01 T03480186  RH  038%=      5-min Rain = 0
KCR1 101909Z 09004KT 35/19 A301 RMK A01 T03510186  RH  038%=      5-min Rain = 0
KCR1 101910Z 11007KT 35/19 A301 RMK A01 T03490185  RH  038%=      5-min Rain = 0
KCR1 101911Z 11008KT 35/18 A301 RMK A01 T03480183  RH  038%=      5-min Rain = 0
KCR1 101912Z 13008KT 35/18 A301 RMK A01 T03510183  RH  037%=      5-min Rain = 0
KCR1 101913Z 10007KT 35/18 A301 RMK A01 T03520182  RH  037%=      5-min Rain = 0
KCR1 101914Z 12010KT 35/18 A301 RMK A01 T03520182  RH  037%=      5-min Rain = 0
KCR1 101915Z 13011KT 36/19 A301 RMK A01 T03550185  RH  037%=      5-min Rain = 0
KCR1 101916Z 12010KT 36/19 A301 RMK A01 T03570185  RH  036%=      5-min Rain = 0
KCR1 101917Z 13009KT 36/19 A301 RMK A01 T03580185  RH  036%=      5-min Rain = 0
KCR1 101918Z 18006KT 36/19 A301 RMK A01 T03570185  RH  036%=      5-min Rain = 0
KCR1 101919Z 18010KT 36/19 A301 RMK A01 T03590185  RH  036%=      5-min Rain = 0
KCR1 101920Z 19008KT 36/18 A3009 RMK A01 T03600184  RH  036%=      5-min Rain = 0
KCR1 101921Z 21005KT 36/18 A3009 RMK A01 T03580183  RH  036%=      5-min Rain = 0
KCR1 101922Z 18008KT 35/18 A3009 RMK A01 T03530182  RH  037%=      5-min Rain = 0
KCR1 101923Z 19009KT 35/18 A3009 RMK A01 T03530183  RH  037%=      5-min Rain = 0
KCR1 101924Z 19006KT 35/18 A3009 RMK A01 T03530184  RH  037%=      5-min Rain = 0
KCR1 101925Z 17007KT 36/18 A3009 RMK A01 T03550184  RH  036%=      5-min Rain = 0
KCR1 101926Z 18004KT 35/18 A3009 RMK A01 T03540181  RH  036%=      5-min Rain = 0
KCR1 101927Z 22006KT 35/18 A3009 RMK A01 T03540182  RH  036%=      5-min Rain = 0
KCR1 101928Z 23005KT 36/18 A3009 RMK A01 T03580184  RH  036%=      5-min Rain = 0
KCR1 101929Z 22004KT 36/18 A3009 RMK A01 T03600182  RH  035%=      5-min Rain = 0
KCR1 101930Z 21003KT 36/18 A3009 RMK A01 T03590183  RH  035%=      5-min Rain = 0
KCR1 101931Z 19008KT 36/19 A3009 RMK A01 T03610185  RH  036%=      5-min Rain = 0
KCR1 101932Z 16010KT 36/19 A3009 RMK A01 T03640186  RH  035%=      5-min Rain = 0
KCR1 101933Z 17008KT 36/18 A3009 RMK A01 T03640181  RH  034%=      5-min Rain = 0
KCR1 101934Z 17009KT 36/18 A3009 RMK A01 T03590182  RH  035%=      5-min Rain = 0
KCR1 101935Z 19008KT 36/18 A3009 RMK A01 T03550181  RH  036%=      5-min Rain = 0
KCR1 101936Z 19007KT 35/18 A3009 RMK A01 T03520180  RH  036%=      5-min Rain = 0
KCR1 101937Z 16009KT 35/18 A3009 RMK A01 T03500182  RH  037%=      5-min Rain = 0
KCR1 101938Z 18007KT 35/18 A3009 RMK A01 T03540183  RH  037%=      5-min Rain = 0
KCR1 101939Z 19004KT 35/18 A3009 RMK A01 T03540182  RH  036%=      5-min Rain = 0
KCR1 101940Z 18004KT 35/18 A3008 RMK A01 T03510179  RH  036%=      5-min Rain = 0
KCR1 101941Z 16009KT 35/18 A3008 RMK A01 T03490179  RH  037%=      5-min Rain = 0
KCR1 101942Z 15009KT 35/18 A3008 RMK A01 T03490177  RH  036%=      5-min Rain = 0
KCR1 101943Z 16006KT 35/18 A3008 RMK A01 T03480178  RH  037%=      5-min Rain = 0
KCR1 101944Z 19005KT 35/18 A3008 RMK A01 T03520179  RH  036%=      5-min Rain = 0
KCR1 101945Z 20005KT 35/18 A3008 RMK A01 T03520178  RH  036%=      5-min Rain = 0
KCR1 101946Z 19006KT 35/18 A3008 RMK A01 T03500179  RH  036%=      5-min Rain = 0
KCR1 101947Z 21004KT 35/18 A3008 RMK A01 T03500180  RH  037%=      5-min Rain = 0
KCR1 101948Z 22001KT 35/18 A3008 RMK A01 T03480178  RH  037%=      5-min Rain = 0
KCR1 101949Z 28001KT 35/18 A3008 RMK A01 T03470179  RH  037%=      5-min Rain = 0
KCR1 101950Z 16002KT 35/18 A3008 RMK A01 T03510180  RH  036%=      5-min Rain = 0
KCR1 101951Z 10006KT 35/18 A3008 RMK A01 T03530181  RH  036%=      5-min Rain = 0
KCR1 101952Z 11005KT 35/18 A3008 RMK A01 T03540183  RH  037%=      5-min Rain = 0
KCR1 101953Z 11005KT 36/19 A3008 RMK A01 T03560185  RH  037%=      5-min Rain = 0
KCR1 101954Z 15005G13KT 36/19 A3008 RMK A01 T03560186  RH  037%=      5-min Rain = 0
KCR1 101955Z 16009KT 36/19 A3008 RMK A01 T03590186  RH  036%=      5-min Rain = 0
KCR1 101956Z 18008KT 36/18 A3008 RMK A01 T03630184  RH  035%=      5-min Rain = 0
KCR1 101957Z 17006KT 37/19 A3008 RMK A01 T03650185  RH  035%=      5-min Rain = 0
KCR1 101958Z 14010KT 37/18 A3007 RMK A01 T03670184  RH  034%=      5-min Rain = 0
KCR1 101959Z 14011KT 37/18 A3007 RMK A01 T03670184  RH  034%=      5-min Rain = 0
KCR1 102000Z 14009KT 36/18 A3007 RMK A01 T03620184  RH  035%=      5-min Rain = 0
KCR1 102001Z 16009KT 36/18 A3007 RMK A01 T03600184  RH  036%=      5-min Rain = 0
KCR1 102002Z 14008KT 36/18 A3007 RMK A01 T03570184  RH  036%=      5-min Rain = 0
KCR1 102003Z 14008KT 36/19 A3007 RMK A01 T03600186  RH  036%=      5-min Rain = 0
KCR1 102004Z 13007KT 36/19 A3007 RMK A01 T03600186  RH  036%=      5-min Rain = 0
KCR1 102005Z 13006KT 36/19 A3007 RMK A01 T03590185  RH  036%=      5-min Rain = 0
KCR1 102006Z 10006KT 36/18 A3007 RMK A01 T03570184  RH  036%=      5-min Rain = 0
KCR1 102007Z 13006KT 35/18 A3007 RMK A01 T03540183  RH  036%=      5-min Rain = 0
KCR1 102008Z 11005KT 35/18 A3007 RMK A01 T03520181  RH  036%=      5-min Rain = 0
KCR1 102009Z 10004KT 35/18 A3007 RMK A01 T03530181  RH  036%=      5-min Rain = 0
KCR1 102010Z 10003KT 35/18 A3007 RMK A01 T03540181  RH  036%=      5-min Rain = 0
KCR1 102011Z 12003KT 35/18 A3007 RMK A01 T03530182  RH  036%=      5-min Rain = 0
KCR1 102012Z 12009KT 36/19 A3007 RMK A01 T03560185  RH  036%=      5-min Rain = 0
KCR1 102013Z 14008KT 36/18 A3007 RMK A01 T03600184  RH  036%=      5-min Rain = 0
KCR1 102014Z 11007KT 36/18 A3007 RMK A01 T03570184  RH  036%=      5-min Rain = 0
KCR1 102015Z 12007KT 36/18 A3007 RMK A01 T03560184  RH  036%=      5-min Rain = 0
KCR1 102016Z 12009KT 36/18 A3007 RMK A01 T03560184  RH  036%=      5-min Rain = 0
KCR1 102017Z 12005KT 35/19 A3007 RMK A01 T03540185  RH  037%=      5-min Rain = 0
KCR1 102018Z 12005KT 35/18 A3007 RMK A01 T03520183  RH  037%=      5-min Rain = 0
KCR1 102019Z 15006KT 35/18 A3007 RMK A01 T03490182  RH  037%=      5-min Rain = 0
KCR1 102020Z 13007KT 35/18 A3007 RMK A01 T03480184  RH  038%=      5-min Rain = 0
KCR1 102021Z 14008KT 35/18 A3007 RMK A01 T03480184  RH  038%=      5-min Rain = 0
KCR1 102022Z 13007KT 35/18 A3007 RMK A01 T03460182  RH  038%=      5-min Rain = 0
KCR1 102023Z 11005KT 35/18 A3006 RMK A01 T03450181  RH  038%=      5-min Rain = 0
KCR1 102024Z 08004KT 34/18 A3006 RMK A01 T03440181  RH  038%=      5-min Rain = 0
KCR1 102025Z 08004KT 34/18 A3006 RMK A01 T03430182  RH  039%=      5-min Rain = 0
KCR1 102026Z 11003KT 34/18 A3006 RMK A01 T03430182  RH  038%=      5-min Rain = 0
KCR1 102027Z 13007KT 34/18 A3006 RMK A01 T03440182  RH  038%=      5-min Rain = 0
KCR1 102028Z 12006KT 35/18 A3006 RMK A01 T03460183  RH  038%=      5-min Rain = 0
KCR1 102029Z 10004KT 35/18 A3006 RMK A01 T03450182  RH  038%=      5-min Rain = 0
KCR1 102030Z 10003KT 34/18 A3006 RMK A01 T03430182  RH  038%=      5-min Rain = 0
KCR1 102031Z 10007KT 34/18 A3006 RMK A01 T03430182  RH  039%=      5-min Rain = 0
KCR1 102032Z 12005KT 34/18 A3006 RMK A01 T03430183  RH  039%=      5-min Rain = 0
KCR1 102033Z 12006KT 34/18 A3006 RMK A01 T03430183  RH  039%=      5-min Rain = 0
KCR1 102034Z 12005KT 34/18 A3006 RMK A01 T03430182  RH  039%=      5-min Rain = 0
KCR1 102035Z 14009KT 34/18 A3006 RMK A01 T03430183  RH  039%=      5-min Rain = 0
KCR1 102036Z 15009KT 35/18 A3006 RMK A01 T03450183  RH  038%=      5-min Rain = 0
KCR1 102037Z 15008KT 35/18 A3006 RMK A01 T03450182  RH  038%=      5-min Rain = 0
KCR1 102038Z 14008KT 35/18 A3006 RMK A01 T03450182  RH  038%=      5-min Rain = 0
KCR1 102039Z 12006KT 35/18 A3006 RMK A01 T03450182  RH  038%=      5-min Rain = 0
KCR1 102040Z 13006KT 35/18 A3006 RMK A01 T03450182  RH  038%=      5-min Rain = 0
KCR1 102041Z 15003KT 35/18 A3006 RMK A01 T03450181  RH  038%=      5-min Rain = 0
KCR1 102042Z 17000KT 35/18 A3006 RMK A01 T03450180  RH  038%=      5-min Rain = 0
KCR1 102043Z 16005KT 34/18 A3006 RMK A01 T03440181  RH  038%=      5-min Rain = 0
KCR1 102044Z 10005KT 35/18 A3006 RMK A01 T03460182  RH  038%=      5-min Rain = 0
KCR1 102045Z 10007KT 35/18 A3006 RMK A01 T03470182  RH  038%=      5-min Rain = 0
KCR1 102046Z 15007KT 35/18 A3006 RMK A01 T03470182  RH  038%=      5-min Rain = 0
KCR1 102047Z 12008KT 35/18 A3006 RMK A01 T03490181  RH  037%=      5-min Rain = 0
KCR1 102048Z 13007KT 35/18 A3005 RMK A01 T03490181  RH  037%=      5-min Rain = 0
KCR1 102049Z 14007KT 35/18 A3005 RMK A01 T03480181  RH  037%=      5-min Rain = 0
KCR1 102050Z 13007KT 35/18 A3005 RMK A01 T03470181  RH  037%=      5-min Rain = 0
KCR1 102051Z 13006KT 35/18 A3005 RMK A01 T03490180  RH  037%=      5-min Rain = 0
KCR1 102052Z 14005KT 35/18 A3005 RMK A01 T03480179  RH  037%=      5-min Rain = 0
KCR1 102053Z 12008KT 35/18 A3005 RMK A01 T03470179  RH  037%=      5-min Rain = 0
KCR1 102054Z 12008KT 35/18 A3005 RMK A01 T03470179  RH  037%=      5-min Rain = 0
KCR1 102055Z 13009KT 35/18 A3005 RMK A01 T03490180  RH  037%=      5-min Rain = 0
KCR1 102056Z 14010KT 35/18 A3005 RMK A01 T03500179  RH  036%=      5-min Rain = 0
KCR1 102057Z 14006KT 35/18 A3005 RMK A01 T03470178  RH  037%=      5-min Rain = 0
KCR1 102058Z 14006KT 35/18 A3005 RMK A01 T03460179  RH  037%=      5-min Rain = 0
KCR1 102059Z 14006KT 35/18 A3005 RMK A01 T03450178  RH  037%=      5-min Rain = 0
KCR1 102100Z 16007KT 35/18 A3005 RMK A01 T03450178  RH  037%=      5-min Rain = 0
KCR1 102101Z 14007KT 35/18 A3005 RMK A01 T03470180  RH  037%=      5-min Rain = 0
KCR1 102102Z 13007KT 35/18 A3005 RMK A01 T03490180  RH  037%=      5-min Rain = 0
KCR1 102103Z 14007KT 35/18 A3005 RMK A01 T03500179  RH  036%=      5-min Rain = 0
KCR1 102104Z 15008KT 35/18 A3005 RMK A01 T03490179  RH  037%=      5-min Rain = 0
KCR1 102105Z 15009KT 35/18 A3005 RMK A01 T03500182  RH  037%=      5-min Rain = 0
KCR1 102106Z 13009KT 35/18 A3005 RMK A01 T03540184  RH  037%=      5-min Rain = 0
KCR1 102107Z 12010KT 36/18 A3005 RMK A01 T03580184  RH  036%=      5-min Rain = 0
KCR1 102108Z 14008KT 36/18 A3005 RMK A01 T03590184  RH  036%=      5-min Rain = 0
KCR1 102109Z 15007KT 36/18 A3005 RMK A01 T03580183  RH  036%=      5-min Rain = 0
KCR1 102110Z 14011KT 36/19 A3005 RMK A01 T03620185  RH  036%=      5-min Rain = 0
KCR1 102111Z 14010KT 37/18 A3005 RMK A01 T03660184  RH  035%=      5-min Rain = 0
KCR1 102112Z 15009KT 37/19 A3005 RMK A01 T03660185  RH  035%=      5-min Rain = 0
KCR1 102113Z 17010KT 37/18 A3004 RMK A01 T03660182  RH  034%=      5-min Rain = 0
KCR1 102114Z 17009KT 36/18 A3004 RMK A01 T03630181  RH  034%=      5-min Rain = 0
KCR1 102115Z 17008KT 36/18 A3005 RMK A01 T03620182  RH  035%=      5-min Rain = 0
KCR1 102116Z 17007KT 36/18 A3005 RMK A01 T03640182  RH  034%=      5-min Rain = 0
KCR1 102117Z 17008KT 36/18 A3004 RMK A01 T03630183  RH  035%=      5-min Rain = 0
KCR1 102118Z 17010KT 37/18 A3004 RMK A01 T03650182  RH  034%=      5-min Rain = 0
KCR1 102119Z 17010G16KT 36/19 A3004 RMK A01 T03640185  RH  035%=      5-min Rain = 0
KCR1 102120Z 17016KT 36/18 A3004 RMK A01 T03600184  RH  035%=      5-min Rain = 0
KCR1 102121Z 16012KT 36/18 A3005 RMK A01 T03560182  RH  036%=      5-min Rain = 0
KCR1 102122Z 16014KT 35/18 A3005 RMK A01 T03540182  RH  036%=      5-min Rain = 0
KCR1 102123Z 15013KT 35/18 A3005 RMK A01 T03530182  RH  036%=      5-min Rain = 0
KCR1 102124Z 15009KT 36/18 A3005 RMK A01 T03560182  RH  036%=      5-min Rain = 0
KCR1 102125Z 16007KT 35/18 A3005 RMK A01 T03530181  RH  036%=      5-min Rain = 0
KCR1 102126Z 16011KT 35/18 A3005 RMK A01 T03530181  RH  036%=      5-min Rain = 0
KCR1 102127Z 14012KT 36/18 A3005 RMK A01 T03590182  RH  035%=      5-min Rain = 0
KCR1 102128Z 15013KT 36/19 A3005 RMK A01 T03630185  RH  035%=      5-min Rain = 0
KCR1 102129Z 16014KT 36/19 A3005 RMK A01 T03620185  RH  035%=      5-min Rain = 0
KCR1 102130Z 16011KT 36/19 A3005 RMK A01 T03590185  RH  036%=      5-min Rain = 0
KCR1 102131Z 17017KT 36/18 A3004 RMK A01 T03590184  RH  036%=      5-min Rain = 0
KCR1 102132Z 16013KT 36/18 A3004 RMK A01 T03590183  RH  035%=      5-min Rain = 0
KCR1 102133Z 14014KT 36/19 A3004 RMK A01 T03590185  RH  036%=      5-min Rain = 0
KCR1 102134Z 16010KT 36/19 A3004 RMK A01 T03610185  RH  036%=      5-min Rain = 0
KCR1 102135Z 15013G18KT 36/19 A3004 RMK A01 T03620186  RH  036%=      5-min Rain = 0
KCR1 102136Z 15015KT 36/19 A3004 RMK A01 T03620186  RH  036%=      5-min Rain = 0
KCR1 102137Z 14016KT 36/19 A3004 RMK A01 T03620187  RH  036%=      5-min Rain = 0
KCR1 102138Z 14014KT 36/19 A3004 RMK A01 T03630188  RH  036%=      5-min Rain = 0
KCR1 102139Z 13016KT 37/19 A3004 RMK A01 T03650187  RH  035%=      5-min Rain = 0
KCR1 102140Z 14014G19KT 36/19 A3005 RMK A01 T03640187  RH  035%=      5-min Rain = 0
KCR1 102141Z 13021KT 36/19 A3005 RMK A01 T03640192  RH  037%=      5-min Rain = 0
KCR1 102142Z 13029KT 36/20 A3004 RMK A01 T03560195  RH  039%=      5-min Rain = 0
KCR1 102143Z 13027KT 35/20 A3005 RMK A01 T03480196  RH  041%=      5-min Rain = 0
KCR1 102144Z 13024KT 34/20 A3005 RMK A01 T03410197  RH  043%=      5-min Rain = 0
KCR1 102145Z 13019G24KT 34/20 A3005 RMK A01 T03350198  RH  045%=      5-min Rain = 0
KCR1 102146Z 14022G29KT 34/20 A3005 RMK A01 T03350199  RH  045%=      5-min Rain = 0
KCR1 102147Z 14023G29KT 33/20 A3005 RMK A01 T03340198  RH  045%=      5-min Rain = 0
KCR1 102148Z 14023G29KT 33/20 A3005 RMK A01 T03320201  RH  046%=      5-min Rain = 0
KCR1 102149Z 13023KT 33/20 A3005 RMK A01 T03300203  RH  047%=      5-min Rain = 0
KCR1 102150Z 13024G29KT 33/20 A3005 RMK A01 T03330203  RH  047%=      5-min Rain = 0
KCR1 102151Z 14026G31KT 33/20 A3005 RMK A01 T03310201  RH  046%=      5-min Rain = 0
KCR1 102152Z 13027G32KT 33/20 A3005 RMK A01 T03260202  RH  048%=      5-min Rain = 0
KCR1 102153Z 14024G29KT 32/21 A3005 RMK A01 T03200205  RH  050%=      5-min Rain = 0
KCR1 102154Z 14025KT 31/21 A3005 RMK A01 T03140205  RH  052%=      5-min Rain = 0
KCR1 102155Z 14023KT 31/21 A3005 RMK A01 T03100206  RH  054%=      5-min Rain = 0
KCR1 102156Z 14023KT 31/21 A3005 RMK A01 T03110205  RH  054%=      5-min Rain = 0
KCR1 102157Z 14023KT 31/21 A3005 RMK A01 T03130205  RH  053%=      5-min Rain = 0
KCR1 102158Z 14022KT 32/21 A3005 RMK A01 T03160207  RH  052%=      5-min Rain = 0
KCR1 102159Z 14021KT 32/21 A3005 RMK A01 T03170207  RH  052%=      5-min Rain = 0
KCR1 102200Z 15018KT 32/21 A3005 RMK A01 T03170207  RH  052%=      5-min Rain = 0
KCR1 102201Z 15021KT 32/21 A3005 RMK A01 T03170207  RH  052%=      5-min Rain = 0
KCR1 102202Z 14020KT 32/21 A3005 RMK A01 T03160207  RH  053%=      5-min Rain = 0
KCR1 102203Z 14017KT 31/21 A3005 RMK A01 T03140208  RH  053%=      5-min Rain = 0
KCR1 102204Z 13018KT 31/21 A3005 RMK A01 T03140208  RH  053%=      5-min Rain = 0
KCR1 102205Z 14019KT 31/21 A3005 RMK A01 T03140207  RH  053%=      5-min Rain = 0
KCR1 102206Z 14017KT 31/21 A3005 RMK A01 T03110206  RH  054%=      5-min Rain = 0
KCR1 102207Z 14015KT 31/21 A3005 RMK A01 T03100206  RH  054%=      5-min Rain = 0
KCR1 102208Z 15019KT 31/20 A3005 RMK A01 T03100202  RH  053%=      5-min Rain = 0
KCR1 102209Z 16020KT 31/20 A3005 RMK A01 T03130200  RH  051%=      5-min Rain = 0
KCR1 102210Z 16022KT 32/20 A3005 RMK A01 T03150199  RH  050%=      5-min Rain = 0
KCR1 102211Z 15022KT 32/20 A3005 RMK A01 T03150198  RH  050%=      5-min Rain = 0
KCR1 102212Z 16022KT 32/20 A3005 RMK A01 T03150197  RH  050%=      5-min Rain = 0
KCR1 102213Z 16020KT 32/20 A3005 RMK A01 T03150197  RH  050%=      5-min Rain = 0
KCR1 102214Z 16022G27KT 32/20 A3005 RMK A01 T03160198  RH  049%=      5-min Rain = 0
KCR1 102215Z 16023KT 32/20 A3005 RMK A01 T03220198  RH  048%=      5-min Rain = 0
KCR1 102216Z 16025KT 32/20 A3005 RMK A01 T03230198  RH  048%=      5-min Rain = 0
KCR1 102217Z 16023G29KT 32/20 A3005 RMK A01 T03210197  RH  048%=      5-min Rain = 0
KCR1 102218Z 16021KT 32/20 A3005 RMK A01 T03200198  RH  048%=      5-min Rain = 0
KCR1 102219Z 16019KT 32/20 A3005 RMK A01 T03160199  RH  050%=      5-min Rain = 0
KCR1 102220Z 17022KT 31/20 A3005 RMK A01 T03120199  RH  051%=      5-min Rain = 0
KCR1 102221Z 17022KT 31/20 A3005 RMK A01 T03080197  RH  052%=      5-min Rain = 0
KCR1 102222Z 17018KT 31/20 A3005 RMK A01 T03050198  RH  053%=      5-min Rain = 0
KCR1 102223Z 16020KT 30/20 A3005 RMK A01 T03040199  RH  053%=      5-min Rain = 0
KCR1 102224Z 16016KT 30/20 A3005 RMK A01 T03000199  RH  055%=      5-min Rain = 0
KCR1 102225Z 16015KT 30/20 A3005 RMK A01 T02990200  RH  055%=      5-min Rain = 0
KCR1 102226Z 16020KT 30/20 A3005 RMK A01 T02990201  RH  056%=      5-min Rain = 0
KCR1 102227Z 16016KT 30/20 A3005 RMK A01 T02960201  RH  057%=      5-min Rain = 0
KCR1 102228Z 16016KT 30/20 A3006 RMK A01 T02950201  RH  057%=      5-min Rain = 0
KCR1 102229Z 16017KT 29/20 A3006 RMK A01 T02940201  RH  057%=      5-min Rain = 0
KCR1 102230Z 16015KT 29/20 A3006 RMK A01 T02920201  RH  058%=      5-min Rain = 0
KCR1 102231Z 16017KT 29/20 A3006 RMK A01 T02900201  RH  059%=      5-min Rain = 0
KCR1 102232Z 17015KT 29/20 A3006 RMK A01 T02880202  RH  060%=      5-min Rain = 0
KCR1 102233Z 16014KT 29/20 A3006 RMK A01 T02870202  RH  060%=      5-min Rain = 0
KCR1 102234Z 17013G19KT 29/20 A3006 RMK A01 T02870203  RH  060%=      5-min Rain = 0
KCR1 102235Z 17016KT 29/20 A3006 RMK A01 T02860203  RH  061%=      5-min Rain = 0
KCR1 102236Z 16012KT 28/20 A3006 RMK A01 T02840203  RH  061%=      5-min Rain = 0
KCR1 102237Z 16014KT 28/20 A3006 RMK A01 T02830203  RH  062%=      5-min Rain = 0
KCR1 102238Z 17012KT 28/20 A3006 RMK A01 T02830204  RH  062%=      5-min Rain = 0
KCR1 102239Z 16013KT 28/20 A3006 RMK A01 T02830204  RH  062%=      5-min Rain = 0
KCR1 102240Z 17012KT 28/20 A3006 RMK A01 T02830204  RH  063%=      5-min Rain = 0
KCR1 102241Z 17012KT 28/20 A3005 RMK A01 T02820204  RH  063%=      5-min Rain = 0
KCR1 102242Z 16011KT 28/21 A3005 RMK A01 T02810205  RH  063%=      5-min Rain = 0
KCR1 102243Z 15011KT 28/20 A3005 RMK A01 T02800204  RH  063%=      5-min Rain = 0
KCR1 102244Z 15011KT 28/20 A3005 RMK A01 T02800204  RH  063%=      5-min Rain = 0
KCR1 102245Z 14010KT 28/21 A3005 RMK A01 T02810205  RH  063%=      5-min Rain = 0
KCR1 102246Z 14010KT 28/21 A3006 RMK A01 T02810205  RH  063%=      5-min Rain = 0
KCR1 102247Z 15010KT 28/21 A3006 RMK A01 T02810205  RH  063%=      5-min Rain = 0
KCR1 102248Z 14009KT 28/21 A3006 RMK A01 T02810205  RH  063%=      5-min Rain = 0
KCR1 102249Z 14008KT 28/21 A3006 RMK A01 T02810205  RH  063%=      5-min Rain = 0
KCR1 102250Z 15010KT 28/21 A3006 RMK A01 T02810205  RH  063%=      5-min Rain = 0
KCR1 102251Z 14009KT 28/21 A3006 RMK A01 T02800205  RH  064%=      5-min Rain = 0
KCR1 102252Z 14008KT 28/21 A3006 RMK A01 T02800205  RH  064%=      5-min Rain = 0
KCR1 102253Z 14008KT 28/21 A3005 RMK A01 T02800205  RH  064%=      5-min Rain = 0
KCR1 102254Z 14010KT 28/20 A3005 RMK A01 T02800204  RH  063%=      5-min Rain = 0
KCR1 102255Z 14009KT 28/20 A3005 RMK A01 T02810204  RH  063%=      5-min Rain = 0
KCR1 102256Z 14010KT 28/20 A3005 RMK A01 T02810203  RH  063%=      5-min Rain = 0
KCR1 102257Z 14011KT 28/20 A3005 RMK A01 T02810202  RH  062%=      5-min Rain = 0
KCR1 102258Z 14010KT 28/20 A3005 RMK A01 T02810202  RH  062%=      5-min Rain = 0
KCR1 102259Z 13009KT 28/20 A3005 RMK A01 T02820203  RH  062%=      5-min Rain = 0
KCR1 102300Z 14010KT 28/20 A3005 RMK A01 T02830204  RH  062%=      5-min Rain = 0
KCR1 102301Z 14009KT 28/20 A3005 RMK A01 T02830204  RH  062%=      5-min Rain = 0
KCR1 102302Z 14010KT 28/20 A3005 RMK A01 T02830204  RH  062%=      5-min Rain = 0
KCR1 102303Z 14011KT 28/20 A3005 RMK A01 T02830204  RH  062%=      5-min Rain = 0
KCR1 102304Z 14010KT 28/20 A3006 RMK A01 T02830203  RH  062%=      5-min Rain = 0
KCR1 102305Z 14008KT 28/20 A3006 RMK A01 T02830203  RH  062%=      5-min Rain = 0
KCR1 102306Z 15007KT 28/20 A3006 RMK A01 T02830204  RH  062%=      5-min Rain = 0
KCR1 102307Z 16007KT 28/20 A3006 RMK A01 T02830203  RH  062%=      5-min Rain = 0
KCR1 102308Z 15008KT 28/20 A3006 RMK A01 T02840203  RH  061%=      5-min Rain = 0
KCR1 102309Z 15010KT 28/20 A3006 RMK A01 T02840201  RH  061%=      5-min Rain = 0
KCR1 102310Z 16008KT 29/20 A3005 RMK A01 T02850201  RH  061%=      5-min Rain = 0
KCR1 102311Z 16010KT 29/20 A3005 RMK A01 T02860202  RH  060%=      5-min Rain = 0
KCR1 102312Z 15010KT 29/20 A3005 RMK A01 T02860202  RH  060%=      5-min Rain = 0
KCR1 102313Z 15009KT 29/20 A3005 RMK A01 T02870202  RH  060%=      5-min Rain = 0
KCR1 102314Z 15007KT 29/20 A3005 RMK A01 T02870202  RH  060%=      5-min Rain = 0
KCR1 102315Z 15008KT 29/20 A3005 RMK A01 T02870202  RH  060%=      5-min Rain = 0
KCR1 102316Z 16008KT 29/20 A3005 RMK A01 T02870201  RH  060%=      5-min Rain = 0
KCR1 102317Z 15008KT 29/20 A3005 RMK A01 T02880201  RH  059%=      5-min Rain = 0
KCR1 102318Z 15009KT 29/20 A3005 RMK A01 T02880202  RH  060%=      5-min Rain = 0
KCR1 102319Z 15009KT 29/20 A3005 RMK A01 T02880201  RH  059%=      5-min Rain = 0
KCR1 102320Z 15008KT 29/20 A3005 RMK A01 T02880201  RH  059%=      5-min Rain = 0
KCR1 102321Z 14009KT 29/20 A3005 RMK A01 T02880201  RH  059%=      5-min Rain = 0
KCR1 102322Z 14009KT 29/20 A3005 RMK A01 T02890201  RH  059%=      5-min Rain = 0
KCR1 102323Z 15009KT 29/20 A3005 RMK A01 T02880201  RH  059%=      5-min Rain = 0
KCR1 102324Z 15009KT 29/20 A3005 RMK A01 T02890202  RH  059%=      5-min Rain = 0
KCR1 102325Z 14009KT 29/20 A3005 RMK A01 T02880202  RH  059%=      5-min Rain = 0
KCR1 102326Z 15011KT 29/20 A3004 RMK A01 T02890201  RH  059%=      5-min Rain = 0
KCR1 102327Z 14011KT 29/20 A3004 RMK A01 T02890201  RH  059%=      5-min Rain = 0
KCR1 102328Z 15010KT 29/20 A3004 RMK A01 T02890201  RH  059%=      5-min Rain = 0
KCR1 102329Z 15010KT 29/20 A3004 RMK A01 T02890201  RH  059%=      5-min Rain = 0
KCR1 102330Z 15010KT 29/20 A3004 RMK A01 T02880201  RH  059%=      5-min Rain = 0
KCR1 102331Z 15011KT 29/20 A3004 RMK A01 T02890201  RH  059%=      5-min Rain = 0
KCR1 102332Z 15010KT 29/20 A3004 RMK A01 T02900201  RH  059%=      5-min Rain = 0
KCR1 102333Z 15010KT 29/20 A3004 RMK A01 T02900202  RH  059%=      5-min Rain = 0
KCR1 102334Z 15009KT 29/20 A3004 RMK A01 T02910203  RH  059%=      5-min Rain = 0
KCR1 102335Z 15011KT 29/20 A3004 RMK A01 T02910201  RH  058%=      5-min Rain = 0
KCR1 102336Z 15012KT 29/20 A3004 RMK A01 T02910200  RH  058%=      5-min Rain = 0
KCR1 102337Z 15013KT 29/20 A3003 RMK A01 T02910200  RH  058%=      5-min Rain = 0
KCR1 102338Z 15012KT 29/20 A3003 RMK A01 T02910201  RH  058%=      5-min Rain = 0
KCR1 102339Z 15011KT 29/20 A3003 RMK A01 T02900200  RH  058%=      5-min Rain = 0
KCR1 102340Z 15011KT 29/20 A3003 RMK A01 T02910200  RH  058%=      5-min Rain = 0
KCR1 102341Z 15010KT 29/20 A3003 RMK A01 T02910200  RH  058%=      5-min Rain = 0
KCR1 102342Z 15011KT 29/20 A3003 RMK A01 T02920201  RH  058%=      5-min Rain = 0
KCR1 102343Z 14012KT 29/20 A3003 RMK A01 T02920201  RH  058%=      5-min Rain = 0
KCR1 102344Z 15012KT 29/20 A3003 RMK A01 T02920201  RH  058%=      5-min Rain = 0
KCR1 102345Z 16013KT 29/20 A3003 RMK A01 T02910199  RH  058%=      5-min Rain = 0
KCR1 102346Z 15012KT 29/20 A3003 RMK A01 T02910198  RH  057%=      5-min Rain = 0
KCR1 102347Z 15012KT 29/20 A3004 RMK A01 T02910198  RH  057%=      5-min Rain = 0
KCR1 102348Z 15012KT 29/20 A3004 RMK A01 T02910197  RH  057%=      5-min Rain = 0
KCR1 102349Z 15011KT 29/20 A3004 RMK A01 T02910198  RH  057%=      5-min Rain = 0
KCR1 102350Z 15011KT 29/20 A3004 RMK A01 T02910197  RH  057%=      5-min Rain = 0
KCR1 102351Z 15009KT 29/20 A3004 RMK A01 T02910198  RH  057%=      5-min Rain = 0
KCR1 102352Z 15011KT 29/20 A3004 RMK A01 T02910197  RH  057%=      5-min Rain = 0
KCR1 102353Z 15011KT 29/20 A3004 RMK A01 T02910197  RH  057%=      5-min Rain = 0
KCR1 102354Z 15011KT 29/20 A3004 RMK A01 T02910197  RH  057%=      5-min Rain = 0
KCR1 102355Z 14012KT 29/20 A3004 RMK A01 T02920196  RH  056%=      5-min Rain = 0
KCR1 102356Z 14011KT 29/20 A3004 RMK A01 T02920196  RH  056%=      5-min Rain = 0
KCR1 102357Z 15011KT 29/20 A3003 RMK A01 T02920196  RH  057%=      5-min Rain = 0
KCR1 102358Z 14010KT 29/20 A3003 RMK A01 T02920197  RH  057%=      5-min Rain = 0
KCR1 102359Z 14010KT 29/20 A3003 RMK A01 T02920198  RH  057%=      5-min Rain = 0
KCR1 110000Z 13009KT 29/20 A3003 RMK A01 T02920198  RH  057%=      5-min Rain = 0
KCR1 110001Z 14009KT 29/20 A3003 RMK A01 T02920198  RH  057%=      5-min Rain = 0
KCR1 110002Z 13009KT 29/20 A3003 RMK A01 T02920198  RH  057%=      5-min Rain = 0
KCR1 110003Z 14009KT 29/20 A3003 RMK A01 T02920198  RH  057%=      5-min Rain = 0
KCR1 110004Z 14008KT 29/20 A3003 RMK A01 T02920198  RH  057%=      5-min Rain = 0
KCR1 110005Z 13007KT 29/20 A3004 RMK A01 T02920198  RH  057%=      5-min Rain = 0
KCR1 110006Z 13008KT 29/20 A3003 RMK A01 T02920199  RH  057%=      5-min Rain = 0
KCR1 110007Z 13008KT 29/20 A3004 RMK A01 T02930199  RH  057%=      5-min Rain = 0
KCR1 110008Z 13008KT 29/20 A3004 RMK A01 T02930198  RH  057%=      5-min Rain = 0
KCR1 110009Z 14008KT 29/20 A3004 RMK A01 T02930198  RH  057%=      5-min Rain = 0
KCR1 110010Z 12008KT 29/20 A3004 RMK A01 T02930199  RH  057%=      5-min Rain = 0
KCR1 110011Z 12008KT 29/20 A3004 RMK A01 T02920199  RH  057%=      5-min Rain = 0
KCR1 110012Z 13008KT 29/20 A3004 RMK A01 T02920200  RH  058%=      5-min Rain = 0
KCR1 110013Z 13007KT 29/20 A3004 RMK A01 T02920200  RH  058%=      5-min Rain = 0
KCR1 110014Z 14006KT 29/20 A3004 RMK A01 T02920200  RH  058%=      5-min Rain = 0
KCR1 110015Z 14006KT 29/20 A3004 RMK A01 T02920200  RH  057%=      5-min Rain = 0
KCR1 110016Z 14007KT 29/20 A3004 RMK A01 T02930199  RH  057%=      5-min Rain = 0
KCR1 110017Z 14009KT 29/20 A3004 RMK A01 T02930198  RH  057%=      5-min Rain = 0
KCR1 110018Z 14008KT 29/20 A3004 RMK A01 T02930198  RH  056%=      5-min Rain = 0
KCR1 110019Z 14008KT 29/20 A3004 RMK A01 T02930198  RH  056%=      5-min Rain = 0
KCR1 110020Z 14010KT 29/20 A3004 RMK A01 T02940198  RH  057%=      5-min Rain = 0
KCR1 110021Z 14011KT 29/20 A3004 RMK A01 T02940198  RH  057%=      5-min Rain = 0
KCR1 110022Z 13009KT 29/20 A3004 RMK A01 T02930198  RH  056%=      5-min Rain = 0
KCR1 110023Z 14010KT 29/20 A3004 RMK A01 T02930198  RH  057%=      5-min Rain = 0
KCR1 110024Z 13011KT 29/20 A3004 RMK A01 T02930198  RH  057%=      5-min Rain = 0
KCR1 110025Z 14010KT 29/20 A3004 RMK A01 T02930198  RH  057%=      5-min Rain = 0
KCR1 110026Z 14009KT 29/20 A3004 RMK A01 T02930198  RH  057%=      5-min Rain = 0
KCR1 110027Z 14009KT 29/20 A3004 RMK A01 T02930198  RH  057%=      5-min Rain = 0
KCR1 110028Z 14010KT 29/20 A3004 RMK A01 T02930198  RH  057%=      5-min Rain = 0
KCR1 110029Z 14011KT 29/20 A3004 RMK A01 T02930198  RH  057%=      5-min Rain = 0
KCR1 110030Z 14008KT 29/20 A3004 RMK A01 T02920198  RH  057%=      5-min Rain = 0
KCR1 110031Z 14008KT 29/20 A3004 RMK A01 T02930199  RH  057%=      5-min Rain = 0
KCR1 110032Z 14010KT 29/20 A3004 RMK A01 T02930199  RH  057%=      5-min Rain = 0
KCR1 110033Z 14008KT 29/20 A3004 RMK A01 T02930198  RH  057%=      5-min Rain = 0
KCR1 110034Z 14008KT 29/20 A3004 RMK A01 T02930199  RH  057%=      5-min Rain = 0
KCR1 110035Z 15008KT 29/20 A3004 RMK A01 T02930199  RH  057%=      5-min Rain = 0
KCR1 110036Z 14009KT 29/20 A3004 RMK A01 T02930198  RH  057%=      5-min Rain = 0
KCR1 110037Z 14008KT 29/20 A3004 RMK A01 T02920198  RH  057%=      5-min Rain = 0
KCR1 110038Z 14009KT 29/20 A3004 RMK A01 T02920200  RH  057%=      5-min Rain = 0
KCR1 110039Z 13009KT 29/20 A3004 RMK A01 T02920201  RH  058%=      5-min Rain = 0
KCR1 110040Z 14008KT 29/20 A3004 RMK A01 T02910202  RH  058%=      5-min Rain = 0
KCR1 110041Z 14008KT 29/20 A3004 RMK A01 T02900201  RH  059%=      5-min Rain = 0
KCR1 110042Z 14008KT 29/20 A3004 RMK A01 T02900201  RH  059%=      5-min Rain = 0
KCR1 110043Z 14009KT 29/20 A3004 RMK A01 T02900201  RH  059%=      5-min Rain = 0
KCR1 110044Z 15008KT 29/20 A3004 RMK A01 T02900201  RH  058%=      5-min Rain = 0
KCR1 110045Z 15009KT 29/20 A3004 RMK A01 T02900200  RH  058%=      5-min Rain = 0
KCR1 110046Z 14009KT 29/20 A3004 RMK A01 T02900200  RH  058%=      5-min Rain = 0
KCR1 110047Z 14009KT 29/20 A3004 RMK A01 T02900199  RH  058%=      5-min Rain = 0
KCR1 110048Z 14009KT 29/20 A3004 RMK A01 T02900199  RH  058%=      5-min Rain = 0
KCR1 110049Z 14009KT 29/20 A3004 RMK A01 T02900199  RH  058%=      5-min Rain = 0
KCR1 110050Z 14009KT 29/20 A3004 RMK A01 T02910199  RH  058%=      5-min Rain = 0
KCR1 110051Z 14008KT 29/20 A3004 RMK A01 T02910199  RH  058%=      5-min Rain = 0
KCR1 110052Z 14010KT 29/20 A3004 RMK A01 T02910199  RH  057%=      5-min Rain = 0
KCR1 110053Z 14009KT 29/20 A3004 RMK A01 T02910198  RH  057%=      5-min Rain = 0
KCR1 110054Z 13009KT 29/20 A3004 RMK A01 T02920198  RH  057%=      5-min Rain = 0
KCR1 110055Z 14010KT 29/20 A3004 RMK A01 T02910198  RH  057%=      5-min Rain = 0
KCR1 110056Z 14010KT 29/20 A3004 RMK A01 T02910198  RH  057%=      5-min Rain = 0
KCR1 110057Z 14011KT 29/20 A3004 RMK A01 T02910198  RH  057%=      5-min Rain = 0
KCR1 110058Z 13009KT 29/20 A3004 RMK A01 T02910197  RH  057%=      5-min Rain = 0
KCR1 110059Z 14009KT 29/20 A3004 RMK A01 T02910197  RH  057%=      5-min Rain = 0
KCR1 110100Z 13009KT 29/20 A3004 RMK A01 T02910197  RH  057%=      5-min Rain = 0
KCR1 110101Z 13010KT 29/20 A3004 RMK A01 T02920196  RH  056%=      5-min Rain = 0
KCR1 110102Z 14009KT 29/20 A3004 RMK A01 T02920196  RH  056%=      5-min Rain = 0
KCR1 110103Z 14008KT 29/20 A3004 RMK A01 T02920196  RH  056%=      5-min Rain = 0
KCR1 110104Z 13008KT 29/20 A3004 RMK A01 T02920196  RH  056%=      5-min Rain = 0
KCR1 110105Z 14010KT 29/20 A3004 RMK A01 T02920196  RH  056%=      5-min Rain = 0
KCR1 110106Z 14008KT 29/20 A3004 RMK A01 T02920196  RH  056%=      5-min Rain = 0
KCR1 110107Z 14008KT 29/20 A3004 RMK A01 T02920195  RH  056%=      5-min Rain = 0
KCR1 110108Z 14010KT 29/20 A3004 RMK A01 T02920195  RH  056%=      5-min Rain = 0
KCR1 110109Z 14009KT 29/20 A3004 RMK A01 T02920195  RH  056%=      5-min Rain = 0
KCR1 110110Z 14008KT 29/20 A3004 RMK A01 T02930195  RH  055%=      5-min Rain = 0
KCR1 110111Z 14009KT 29/19 A3004 RMK A01 T02930194  RH  055%=      5-min Rain = 0
KCR1 110112Z 13009KT 29/19 A3004 RMK A01 T02930194  RH  055%=      5-min Rain = 0
KCR1 110113Z 14008KT 29/19 A3004 RMK A01 T02930194  RH  055%=      5-min Rain = 0
KCR1 110114Z 14009KT 29/19 A3004 RMK A01 T02930194  RH  055%=      5-min Rain = 0
KCR1 110115Z 14008KT 29/19 A3004 RMK A01 T02930194  RH  055%=      5-min Rain = 0
KCR1 110116Z 13008KT 29/19 A3004 RMK A01 T02930194  RH  055%=      5-min Rain = 0
KCR1 110117Z 14007KT 29/19 A3004 RMK A01 T02930194  RH  055%=      5-min Rain = 0
KCR1 110118Z 13007KT 29/19 A3004 RMK A01 T02930194  RH  055%=      5-min Rain = 0
KCR1 110119Z 14007KT 29/19 A3004 RMK A01 T02930194  RH  055%=      5-min Rain = 0
KCR1 110120Z 14008KT 29/19 A3004 RMK A01 T02930194  RH  055%=      5-min Rain = 0
KCR1 110121Z 14008KT 29/20 A3004 RMK A01 T02930195  RH  055%=      5-min Rain = 0
KCR1 110122Z 14008KT 29/19 A3004 RMK A01 T02930194  RH  055%=      5-min Rain = 0
KCR1 110123Z 14008KT 29/19 A3004 RMK A01 T02930194  RH  055%=      5-min Rain = 0
KCR1 110124Z 14008KT 29/19 A3004 RMK A01 T02930194  RH  055%=      5-min Rain = 0
KCR1 110125Z 14008KT 29/20 A3004 RMK A01 T02930195  RH  056%=      5-min Rain = 0
KCR1 110126Z 14008KT 29/20 A3004 RMK A01 T02930195  RH  056%=      5-min Rain = 0
KCR1 110127Z 14009KT 29/20 A3004 RMK A01 T02930195  RH  056%=      5-min Rain = 0
KCR1 110128Z 15008KT 29/20 A3004 RMK A01 T02920195  RH  056%=      5-min Rain = 0
KCR1 110129Z 14009KT 29/20 A3004 RMK A01 T02920195  RH  056%=      5-min Rain = 0
KCR1 110130Z 15008KT 29/20 A3004 RMK A01 T02920195  RH  056%=      5-min Rain = 0
KCR1 110131Z 15008KT 29/20 A3004 RMK A01 T02920196  RH  056%=      5-min Rain = 0
KCR1 110132Z 15008KT 29/20 A3004 RMK A01 T02920196  RH  056%=      5-min Rain = 0
KCR1 110133Z 15008KT 29/20 A3004 RMK A01 T02920196  RH  056%=      5-min Rain = 0
KCR1 110134Z 15007KT 29/20 A3004 RMK A01 T02920196  RH  056%=      5-min Rain = 0
KCR1 110135Z 15008KT 29/20 A3004 RMK A01 T02920196  RH  056%=      5-min Rain = 0
KCR1 110136Z 14007KT 29/20 A3004 RMK A01 T02920196  RH  056%=      5-min Rain = 0
KCR1 110137Z 14006KT 29/20 A3004 RMK A01 T02910198  RH  057%=      5-min Rain = 0
KCR1 110138Z 14007KT 29/20 A3004 RMK A01 T02900198  RH  057%=      5-min Rain = 0
KCR1 110139Z 15007KT 29/20 A3004 RMK A01 T02900199  RH  058%=      5-min Rain = 0
KCR1 110140Z 15007KT 29/20 A3004 RMK A01 T02900199  RH  058%=      5-min Rain = 0
KCR1 110141Z 15007KT 29/20 A3004 RMK A01 T02890199  RH  058%=      5-min Rain = 0
KCR1 110142Z 15007KT 29/20 A3004 RMK A01 T02880199  RH  059%=      5-min Rain = 0
KCR1 110143Z 15007KT 29/20 A3004 RMK A01 T02880199  RH  059%=      5-min Rain = 0
KCR1 110144Z 15006KT 29/20 A3004 RMK A01 T02880199  RH  059%=      5-min Rain = 0
KCR1 110145Z 15007KT 29/20 A3004 RMK A01 T02890199  RH  059%=      5-min Rain = 0
KCR1 110146Z 15008KT 29/20 A3004 RMK A01 T02890199  RH  059%=      5-min Rain = 0
KCR1 110147Z 15007KT 29/20 A3004 RMK A01 T02880199  RH  059%=      5-min Rain = 0
KCR1 110148Z 15007KT 29/20 A3004 RMK A01 T02880199  RH  059%=      5-min Rain = 0
KCR1 110149Z 14006KT 29/20 A3004 RMK A01 T02880199  RH  059%=      5-min Rain = 0
KCR1 110150Z 15006KT 29/20 A3004 RMK A01 T02880200  RH  059%=      5-min Rain = 0
KCR1 110151Z 15007KT 29/20 A3004 RMK A01 T02880200  RH  059%=      5-min Rain = 0
KCR1 110152Z 15007KT 29/20 A3004 RMK A01 T02870200  RH  059%=      5-min Rain = 0
KCR1 110153Z 15008KT 29/20 A3004 RMK A01 T02870201  RH  059%=      5-min Rain = 0
KCR1 110154Z 15007KT 29/20 A3004 RMK A01 T02870200  RH  060%=      5-min Rain = 0
KCR1 110155Z 15007KT 29/20 A3004 RMK A01 T02870200  RH  060%=      5-min Rain = 0
KCR1 110156Z 15007KT 29/20 A3004 RMK A01 T02870201  RH  060%=      5-min Rain = 0
KCR1 110157Z 16006KT 29/20 A3004 RMK A01 T02860201  RH  060%=      5-min Rain = 0
KCR1 110158Z 16005KT 29/20 A3004 RMK A01 T02860201  RH  060%=      5-min Rain = 0
KCR1 110159Z 16006KT 29/20 A3004 RMK A01 T02860201  RH  060%=      5-min Rain = 0
KCR1 110200Z 15007KT 29/20 A3004 RMK A01 T02860201  RH  060%=      5-min Rain = 0
KCR1 110201Z 15006KT 29/20 A3004 RMK A01 T02860200  RH  060%=      5-min Rain = 0
KCR1 110202Z 15006KT 29/20 A3004 RMK A01 T02860200  RH  060%=      5-min Rain = 0
KCR1 110203Z 14006KT 29/20 A3004 RMK A01 T02860199  RH  059%=      5-min Rain = 0
KCR1 110204Z 14006KT 29/20 A3004 RMK A01 T02860199  RH  059%=      5-min Rain = 0
KCR1 110205Z 14007KT 29/20 A3004 RMK A01 T02860199  RH  059%=      5-min Rain = 0
KCR1 110206Z 14007KT 29/20 A3004 RMK A01 T02860199  RH  059%=      5-min Rain = 0
KCR1 110207Z 13005KT 29/20 A3004 RMK A01 T02860200  RH  059%=      5-min Rain = 0
KCR1 110208Z 14005KT 29/20 A3005 RMK A01 T02860200  RH  060%=      5-min Rain = 0
KCR1 110209Z 14005KT 29/20 A3005 RMK A01 T02860200  RH  060%=      5-min Rain = 0
KCR1 110210Z 13004KT 29/20 A3005 RMK A01 T02850200  RH  060%=      5-min Rain = 0
KCR1 110211Z 14004KT 29/20 A3005 RMK A01 T02850200  RH  060%=      5-min Rain = 0
KCR1 110212Z 13005KT 28/20 A3005 RMK A01 T02840199  RH  060%=      5-min Rain = 0
KCR1 110213Z 13005KT 28/20 A3005 RMK A01 T02840199  RH  060%=      5-min Rain = 0
KCR1 110214Z 12005KT 28/20 A3005 RMK A01 T02840199  RH  060%=      5-min Rain = 0
KCR1 110215Z 12005KT 28/20 A3005 RMK A01 T02840200  RH  060%=      5-min Rain = 0
KCR1 110216Z 12005KT 28/20 A3005 RMK A01 T02840200  RH  060%=      5-min Rain = 0
KCR1 110217Z 12005KT 28/20 A3005 RMK A01 T02840200  RH  060%=      5-min Rain = 0
KCR1 110218Z 12005KT 28/20 A3005 RMK A01 T02830200  RH  061%=      5-min Rain = 0
KCR1 110219Z 12005KT 28/20 A3005 RMK A01 T02840201  RH  061%=      5-min Rain = 0
KCR1 110220Z 12005KT 28/20 A3005 RMK A01 T02840201  RH  061%=      5-min Rain = 0
KCR1 110221Z 13005KT 28/20 A3005 RMK A01 T02830201  RH  061%=      5-min Rain = 0
KCR1 110222Z 13004KT 28/20 A3005 RMK A01 T02830201  RH  061%=      5-min Rain = 0
KCR1 110223Z 12004KT 28/20 A3005 RMK A01 T02830201  RH  061%=      5-min Rain = 0
KCR1 110224Z 12005KT 28/20 A3005 RMK A01 T02820201  RH  061%=      5-min Rain = 0
KCR1 110225Z 12005KT 28/20 A3005 RMK A01 T02820200  RH  061%=      5-min Rain = 0
KCR1 110226Z 12005KT 28/20 A3005 RMK A01 T02820200  RH  061%=      5-min Rain = 0
KCR1 110227Z 13006KT 28/20 A3005 RMK A01 T02820199  RH  061%=      5-min Rain = 0
KCR1 110228Z 12006KT 28/20 A3005 RMK A01 T02820199  RH  061%=      5-min Rain = 0
KCR1 110229Z 12006KT 28/20 A3005 RMK A01 T02810199  RH  061%=      5-min Rain = 0
KCR1 110230Z 13005KT 28/20 A3005 RMK A01 T02810199  RH  061%=      5-min Rain = 0
KCR1 110231Z 13006KT 28/20 A3005 RMK A01 T02820199  RH  061%=      5-min Rain = 0
KCR1 110232Z 13006KT 28/20 A3005 RMK A01 T02820199  RH  061%=      5-min Rain = 0
KCR1 110233Z 14006KT 28/20 A3005 RMK A01 T02810199  RH  061%=      5-min Rain = 0
KCR1 110234Z 14006KT 28/20 A3005 RMK A01 T02800199  RH  061%=      5-min Rain = 0
KCR1 110235Z 14006KT 28/20 A3005 RMK A01 T02800199  RH  061%=      5-min Rain = 0
KCR1 110236Z 14006KT 28/20 A3005 RMK A01 T02800199  RH  061%=      5-min Rain = 0
KCR1 110237Z 14006KT 28/20 A3005 RMK A01 T02800199  RH  061%=      5-min Rain = 0
KCR1 110238Z 14006KT 28/20 A3005 RMK A01 T02800200  RH  062%=      5-min Rain = 0
KCR1 110239Z 14006KT 28/20 A3005 RMK A01 T02800199  RH  062%=      5-min Rain = 0
KCR1 110240Z 14007KT 28/20 A3005 RMK A01 T02800199  RH  061%=      5-min Rain = 0
KCR1 110241Z 15007KT 28/20 A3005 RMK A01 T02800198  RH  061%=      5-min Rain = 0
KCR1 110242Z 14007KT 28/20 A3005 RMK A01 T02800198  RH  061%=      5-min Rain = 0
KCR1 110243Z 14007KT 28/20 A3005 RMK A01 T02800198  RH  061%=      5-min Rain = 0
KCR1 110244Z 14008KT 28/20 A3005 RMK A01 T02810197  RH  061%=      5-min Rain = 0
KCR1 110245Z 15008KT 28/20 A3005 RMK A01 T02810197  RH  060%=      5-min Rain = 0
KCR1 110246Z 15007KT 28/20 A3005 RMK A01 T02810197  RH  060%=      5-min Rain = 0
KCR1 110247Z 14009KT 28/20 A3005 RMK A01 T02810197  RH  060%=      5-min Rain = 0
KCR1 110248Z 14008KT 28/20 A3005 RMK A01 T02810197  RH  060%=      5-min Rain = 0
KCR1 110249Z 14008KT 28/20 A3005 RMK A01 T02810196  RH  060%=      5-min Rain = 0
KCR1 110250Z 14008KT 28/20 A3005 RMK A01 T02810196  RH  060%=      5-min Rain = 0
KCR1 110251Z 15007KT 28/20 A3005 RMK A01 T02810196  RH  060%=      5-min Rain = 0
KCR1 110252Z 14007KT 28/20 A3005 RMK A01 T02810196  RH  060%=      5-min Rain = 0
KCR1 110253Z 15008KT 28/20 A3005 RMK A01 T02810196  RH  060%=      5-min Rain = 0
KCR1 110254Z 15007KT 28/20 A3005 RMK A01 T02800195  RH  060%=      5-min Rain = 0
KCR1 110255Z 15008KT 28/20 A3005 RMK A01 T02800196  RH  060%=      5-min Rain = 0
KCR1 110256Z 15007KT 28/20 A3005 RMK A01 T02800196  RH  060%=      5-min Rain = 0
KCR1 110257Z 14008KT 28/20 A3005 RMK A01 T02800195  RH  060%=      5-min Rain = 0
KCR1 110258Z 14008KT 28/20 A3005 RMK A01 T02800196  RH  060%=      5-min Rain = 0
KCR1 110259Z 14007KT 28/20 A3005 RMK A01 T02800196  RH  060%=      5-min Rain = 0
KCR1 110300Z 15007KT 28/20 A3005 RMK A01 T02800196  RH  060%=      5-min Rain = 0
KCR1 110301Z 15007KT 28/20 A3005 RMK A01 T02790195  RH  060%=      5-min Rain = 0
KCR1 110302Z 15006KT 28/20 A3005 RMK A01 T02790195  RH  060%=      5-min Rain = 0
KCR1 110303Z 15006KT 28/20 A3005 RMK A01 T02790195  RH  060%=      5-min Rain = 0
KCR1 110304Z 15007KT 28/20 A3005 RMK A01 T02790196  RH  061%=      5-min Rain = 0
KCR1 110305Z 15006KT 28/20 A3005 RMK A01 T02780196  RH  061%=      5-min Rain = 0
KCR1 110306Z 15006KT 28/20 A3005 RMK A01 T02780196  RH  061%=      5-min Rain = 0
KCR1 110307Z 15007KT 28/20 A3005 RMK A01 T02780196  RH  061%=      5-min Rain = 0
KCR1 110308Z 15008KT 28/20 A3005 RMK A01 T02780196  RH  061%=      5-min Rain = 0
KCR1 110309Z 15008KT 28/20 A3005 RMK A01 T02780196  RH  061%=      5-min Rain = 0
KCR1 110310Z 15007KT 28/20 A3005 RMK A01 T02780196  RH  061%=      5-min Rain = 0
KCR1 110311Z 15007KT 28/20 A3005 RMK A01 T02780196  RH  061%=      5-min Rain = 0
KCR1 110312Z 15007KT 28/20 A3005 RMK A01 T02780196  RH  061%=      5-min Rain = 0
KCR1 110313Z 15007KT 28/20 A3005 RMK A01 T02780196  RH  061%=      5-min Rain = 0
KCR1 110314Z 15008KT 28/20 A3005 RMK A01 T02780196  RH  061%=      5-min Rain = 0
KCR1 110315Z 15007KT 28/20 A3005 RMK A01 T02780196  RH  061%=      5-min Rain = 0
KCR1 110316Z 15008KT 28/20 A3005 RMK A01 T02780196  RH  061%=      5-min Rain = 0
KCR1 110317Z 15006KT 28/20 A3005 RMK A01 T02780196  RH  061%=      5-min Rain = 0
KCR1 110318Z 16007KT 28/20 A3005 RMK A01 T02780196  RH  061%=      5-min Rain = 0
KCR1 110319Z 15007KT 28/20 A3005 RMK A01 T02770196  RH  061%=      5-min Rain = 0
KCR1 110320Z 15006KT 28/20 A3005 RMK A01 T02770196  RH  061%=      5-min Rain = 0
KCR1 110321Z 15007KT 28/20 A3005 RMK A01 T02770196  RH  061%=      5-min Rain = 0
KCR1 110322Z 16007KT 28/20 A3005 RMK A01 T02760196  RH  062%=      5-min Rain = 0
KCR1 110323Z 16007KT 28/20 A3005 RMK A01 T02770196  RH  062%=      5-min Rain = 0
KCR1 110324Z 16008KT 28/20 A3006 RMK A01 T02770196  RH  062%=      5-min Rain = 0
KCR1 110325Z 16008KT 28/20 A3006 RMK A01 T02770197  RH  062%=      5-min Rain = 0
KCR1 110326Z 16008KT 28/20 A3006 RMK A01 T02770197  RH  062%=      5-min Rain = 0
KCR1 110327Z 15007KT 28/20 A3006 RMK A01 T02760197  RH  062%=      5-min Rain = 0
KCR1 110328Z 15007KT 28/20 A3005 RMK A01 T02760197  RH  062%=      5-min Rain = 0
KCR1 110329Z 15006KT 28/20 A3006 RMK A01 T02750197  RH  062%=      5-min Rain = 0
KCR1 110330Z 15007KT 28/20 A3006 RMK A01 T02750197  RH  063%=      5-min Rain = 0
KCR1 110331Z 15007KT 27/20 A3006 RMK A01 T02740197  RH  063%=      5-min Rain = 0
KCR1 110332Z 15007KT 27/20 A3006 RMK A01 T02740197  RH  063%=      5-min Rain = 0
KCR1 110333Z 14006KT 27/20 A3006 RMK A01 T02740197  RH  063%=      5-min Rain = 0
KCR1 110334Z 14006KT 27/20 A3006 RMK A01 T02730197  RH  063%=      5-min Rain = 0
KCR1 110335Z 14006KT 27/20 A3006 RMK A01 T02730197  RH  063%=      5-min Rain = 0
KCR1 110336Z 14006KT 27/20 A3006 RMK A01 T02720197  RH  063%=      5-min Rain = 0
KCR1 110337Z 13006KT 27/20 A3006 RMK A01 T02720197  RH  064%=      5-min Rain = 0
KCR1 110338Z 13006KT 27/20 A3006 RMK A01 T02720197  RH  064%=      5-min Rain = 0
KCR1 110339Z 13005KT 27/20 A3006 RMK A01 T02720197  RH  064%=      5-min Rain = 0
KCR1 110340Z 13006KT 27/20 A3006 RMK A01 T02720197  RH  064%=      5-min Rain = 0
KCR1 110341Z 14006KT 27/20 A3006 RMK A01 T02710197  RH  064%=      5-min Rain = 0
KCR1 110342Z 14006KT 27/20 A3006 RMK A01 T02710197  RH  064%=      5-min Rain = 0
KCR1 110343Z 14006KT 27/20 A3006 RMK A01 T02710197  RH  064%=      5-min Rain = 0
KCR1 110344Z 14006KT 27/20 A3006 RMK A01 T02700197  RH  064%=      5-min Rain = 0
KCR1 110345Z 13005KT 27/20 A3006 RMK A01 T02700197  RH  064%=      5-min Rain = 0
KCR1 110346Z 14006KT 27/20 A3006 RMK A01 T02700197  RH  064%=      5-min Rain = 0
KCR1 110347Z 15005KT 27/20 A3006 RMK A01 T02700197  RH  065%=      5-min Rain = 0
KCR1 110348Z 14005KT 27/20 A3006 RMK A01 T02690197  RH  065%=      5-min Rain = 0
KCR1 110349Z 14005KT 27/20 A3006 RMK A01 T02680197  RH  065%=      5-min Rain = 0
KCR1 110350Z 15005KT 27/20 A3006 RMK A01 T02680197  RH  065%=      5-min Rain = 0
KCR1 110351Z 15006KT 27/20 A3006 RMK A01 T02680198  RH  066%=      5-min Rain = 0
KCR1 110352Z 15006KT 27/20 A3006 RMK A01 T02670198  RH  066%=      5-min Rain = 0
KCR1 110353Z 15006KT 27/20 A3006 RMK A01 T02670198  RH  066%=      5-min Rain = 0
KCR1 110354Z 15005KT 27/20 A3006 RMK A01 T02670198  RH  066%=      5-min Rain = 0
KCR1 110355Z 15005KT 27/20 A3006 RMK A01 T02670199  RH  066%=      5-min Rain = 0
KCR1 110356Z 15005KT 27/20 A3006 RMK A01 T02660198  RH  066%=      5-min Rain = 0
KCR1 110357Z 15005KT 27/20 A3006 RMK A01 T02660199  RH  066%=      5-min Rain = 0
KCR1 110358Z 15004KT 27/20 A3006 RMK A01 T02660199  RH  066%=      5-min Rain = 0
KCR1 110359Z 14004KT 27/20 A3007 RMK A01 T02660198  RH  067%=      5-min Rain = 0
KCR1 110400Z 14004KT 27/20 A3007 RMK A01 T02650199  RH  067%=      5-min Rain = 0
KCR1 110401Z 14004KT 27/20 A3007 RMK A01 T02650199  RH  067%=      5-min Rain = 0
KCR1 110402Z 13004KT 27/20 A3007 RMK A01 T02650199  RH  067%=      5-min Rain = 0
KCR1 110403Z 13004KT 26/20 A3007 RMK A01 T02640199  RH  067%=      5-min Rain = 0
KCR1 110404Z 12004KT 26/20 A3007 RMK A01 T02640199  RH  067%=      5-min Rain = 0
KCR1 110405Z 12005KT 26/20 A3007 RMK A01 T02640199  RH  067%=      5-min Rain = 0
KCR1 110406Z 12004KT 26/20 A3007 RMK A01 T02640199  RH  067%=      5-min Rain = 0
KCR1 110407Z 11004KT 26/20 A3007 RMK A01 T02640199  RH  067%=      5-min Rain = 0
KCR1 110408Z 10004KT 26/20 A3007 RMK A01 T02640199  RH  067%=      5-min Rain = 0
KCR1 110409Z 10005KT 26/20 A3007 RMK A01 T02640199  RH  067%=      5-min Rain = 0
KCR1 110410Z 11005KT 26/20 A3007 RMK A01 T02640199  RH  067%=      5-min Rain = 0
KCR1 110411Z 11005KT 26/20 A3007 RMK A01 T02640198  RH  067%=      5-min Rain = 0
KCR1 110412Z 12005KT 26/20 A3007 RMK A01 T02640199  RH  067%=      5-min Rain = 0
KCR1 110413Z 12004KT 27/20 A3007 RMK A01 T02650199  RH  067%=      5-min Rain = 0
KCR1 110414Z 12004KT 27/20 A3007 RMK A01 T02650199  RH  067%=      5-min Rain = 0
KCR1 110415Z 12004KT 26/20 A3007 RMK A01 T02640199  RH  067%=      5-min Rain = 0
KCR1 110416Z 13004KT 26/20 A3008 RMK A01 T02630198  RH  067%=      5-min Rain = 0
KCR1 110417Z 13004KT 26/20 A3008 RMK A01 T02630198  RH  068%=      5-min Rain = 0
KCR1 110418Z 13004KT 26/20 A3008 RMK A01 T02620198  RH  068%=      5-min Rain = 0
KCR1 110419Z 13004KT 26/20 A3008 RMK A01 T02620198  RH  068%=      5-min Rain = 0
KCR1 110420Z 13003KT 26/20 A3008 RMK A01 T02620198  RH  068%=      5-min Rain = 0
KCR1 110421Z 12004KT 26/20 A3008 RMK A01 T02610198  RH  068%=      5-min Rain = 0
KCR1 110422Z 12003KT 26/20 A3008 RMK A01 T02610198  RH  068%=      5-min Rain = 0
KCR1 110423Z 12004KT 26/20 A3008 RMK A01 T02610198  RH  068%=      5-min Rain = 0
KCR1 110424Z 12004KT 26/20 A3008 RMK A01 T02610198  RH  068%=      5-min Rain = 0
KCR1 110425Z 12004KT 26/20 A3008 RMK A01 T02610198  RH  069%=      5-min Rain = 0
KCR1 110426Z 12004KT 26/20 A3008 RMK A01 T02610199  RH  069%=      5-min Rain = 0
KCR1 110427Z 12004KT 26/20 A3008 RMK A01 T02610199  RH  069%=      5-min Rain = 0
KCR1 110428Z 12004KT 26/20 A3008 RMK A01 T02610199  RH  069%=      5-min Rain = 0
KCR1 110429Z 12003KT 26/20 A3008 RMK A01 T02600199  RH  069%=      5-min Rain = 0
KCR1 110430Z 12003KT 26/20 A3008 RMK A01 T02600199  RH  069%=      5-min Rain = 0
KCR1 110431Z 12004KT 26/20 A3008 RMK A01 T02590199  RH  069%=      5-min Rain = 0
KCR1 110432Z 12003KT 26/20 A3008 RMK A01 T02600200  RH  069%=      5-min Rain = 0
KCR1 110433Z 12003KT 26/20 A3008 RMK A01 T02600200  RH  070%=      5-min Rain = 0
KCR1 110434Z 12003KT 26/20 A3008 RMK A01 T02600200  RH  070%=      5-min Rain = 0
KCR1 110435Z 12003KT 26/20 A3008 RMK A01 T02590200  RH  070%=      5-min Rain = 0
KCR1 110436Z 12004KT 26/20 A3008 RMK A01 T02600201  RH  070%=      5-min Rain = 0
KCR1 110437Z 13004KT 26/20 A3008 RMK A01 T02600201  RH  070%=      5-min Rain = 0
KCR1 110438Z 13004KT 26/20 A3008 RMK A01 T02590200  RH  070%=      5-min Rain = 0
KCR1 110439Z 13004KT 26/20 A3008 RMK A01 T02580200  RH  070%=      5-min Rain = 0
KCR1 110440Z 12004KT 26/20 A3008 RMK A01 T02580201  RH  070%=      5-min Rain = 0
KCR1 110441Z 13005KT 26/20 A3008 RMK A01 T02580201  RH  071%=      5-min Rain = 0
KCR1 110442Z 12005KT 26/20 A3008 RMK A01 T02580201  RH  071%=      5-min Rain = 0
KCR1 110443Z 12005KT 26/20 A3008 RMK A01 T02580201  RH  071%=      5-min Rain = 0
KCR1 110444Z 12005KT 26/20 A3008 RMK A01 T02580201  RH  071%=      5-min Rain = 0
KCR1 110445Z 12005KT 26/20 A3008 RMK A01 T02580202  RH  071%=      5-min Rain = 0
KCR1 110446Z 12005KT 26/20 A3008 RMK A01 T02580202  RH  071%=      5-min Rain = 0
KCR1 110447Z 12005KT 26/20 A3008 RMK A01 T02580202  RH  071%=      5-min Rain = 0
KCR1 110448Z 12004KT 26/20 A3008 RMK A01 T02570202  RH  071%=      5-min Rain = 0
KCR1 110449Z 12004KT 26/20 A3008 RMK A01 T02570202  RH  071%=      5-min Rain = 0
KCR1 110450Z 11005KT 26/20 A3008 RMK A01 T02570202  RH  072%=      5-min Rain = 0
KCR1 110451Z 12005KT 26/20 A3008 RMK A01 T02570202  RH  072%=      5-min Rain = 0
KCR1 110452Z 11005KT 26/20 A3008 RMK A01 T02570202  RH  072%=      5-min Rain = 0
KCR1 110453Z 11005KT 26/20 A3008 RMK A01 T02570202  RH  072%=      5-min Rain = 0
KCR1 110454Z 11006KT 26/20 A3008 RMK A01 T02570202  RH  072%=      5-min Rain = 0
KCR1 110455Z 10005KT 26/20 A3008 RMK A01 T02570202  RH  072%=      5-min Rain = 0
KCR1 110456Z 10006KT 26/20 A3008 RMK A01 T02570202  RH  071%=      5-min Rain = 0
KCR1 110457Z 11005KT 26/20 A3008 RMK A01 T02570202  RH  071%=      5-min Rain = 0
KCR1 110458Z 10006KT 26/20 A3008 RMK A01 T02570202  RH  072%=      5-min Rain = 0
KCR1 110459Z 10006KT 26/20 A3008 RMK A01 T02570202  RH  072%=      5-min Rain = 0

Page generated in 0.13 seconds.